GFSGL_prec_cthk_000.txt.gz
RH
30 32 33 40 44 45 49 54 54 52 51 49 50 53 65 56 61 60 52 47 40 30 29 36 37 46 45 49 51 47 48 46 45 41 46 46 41 39 40 45 46 46 46
36 36 40 46 49 50 51 54 54 53 54 52 59 56 50 60 62 64 61 55 49 44 39 35 43 51 52 56 58 58 52 47 52 50 46 48 48 42 43 43 46 50 48
48 50 50 52 53 57 55 52 51 54 53 58 64 70 63 63 58 64 66 58 53 51 51 50 45 56 60 59 54 53 53 47 48 46 52 52 50 45 47 48 53 50 49
51 53 59 63 60 61 63 60 52 55 53 58 60 63 66 59 57 63 71 64 58 60 59 61 58 57 60 64 63 56 51 50 50 49 54 56 53 49 55 57 59 57 55
48 54 57 61 65 64 64 60 56 55 54 51 54 58 61 57 53 68 69 67 64 66 64 68 69 67 66 66 66 61 51 46 48 51 52 53 48 54 63 62 60 59 57
46 51 55 56 57 56 59 60 57 54 59 63 57 56 63 57 57 65 66 70 71 72 75 79 80 80 79 79 77 72 57 49 47 47 49 49 47 59 63 62 56 56 55
43 44 47 48 50 50 52 61 65 71 70 60 57 61 64 66 67 63 65 72 74 76 78 79 85 88 93 93 89 81 59 42 44 46 50 54 59 58 53 52 53 54 47
39 42 45 45 45 43 43 47 52 62 65 65 62 66 71 76 66 68 73 75 76 77 78 81 82 91 92 91 84 71 52 43 47 49 49 46 48 47 45 47 50 50 44
40 42 41 40 44 47 50 52 60 67 70 68 70 71 73 73 66 74 76 78 72 74 80 82 84 84 93 82 72 50 44 44 47 45 44 44 48 46 40 38 46 53 49
34 37 39 43 44 49 55 59 66 73 67 67 69 70 70 70 72 72 70 75 72 78 78 81 84 86 84 74 57 48 49 47 47 46 48 55 51 43 34 38 44 50 49
36 38 41 45 49 55 55 59 67 68 69 70 72 73 73 71 72 70 69 71 74 77 78 82 82 80 72 59 49 46 46 43 44 46 57 55 41 42 46 48 46 48 44
40 42 50 56 59 63 61 58 62 68 71 71 68 75 77 70 72 71 69 75 78 77 77 77 71 62 51 47 46 45 45 45 50 56 58 48 43 45 49 46 42 37 35
42 48 55 61 67 64 61 62 63 68 71 69 67 77 78 78 72 69 72 72 74 74 74 64 56 51 51 51 49 49 48 54 59 58 52 44 40 42 44 41 38 32 30
49 55 60 63 62 60 63 62 63 69 65 67 78 77 76 73 81 70 71 68 70 70 67 64 57 56 55 54 54 53 57 59 52 42 43 44 39 39 39 35 30 28 35
53 57 59 58 60 60 58 61 66 63 62 68 63 62 67 73 77 71 71 67 72 71 67 64 62 61 61 61 62 59 57 46 49 50 49 46 43 39 32 27 27 33 43
53 52 49 48 50 54 56 59 62 61 61 55 55 56 59 61 61 65 69 69 71 68 63 64 65 65 62 62 61 61 57 55 57 51 50 46 39 35 31 25 27 37 48
46 44 44 48 52 57 60 57 54 55 54 54 53 51 53 60 63 66 66 65 62 60 63 62 62 63 63 62 63 63 64 59 50 46 44 40 35 31 30 28 27 30 42
45 42 46 50 55 56 55 51 57 60 57 54 56 60 64 61 60 63 63 58 56 61 61 59 58 59 58 60 62 62 60 53 50 44 39 34 31 30 27 26 26 30 36
41 43 49 53 54 53 47 47 56 62 63 64 62 64 66 62 61 60 58 59 60 57 55 60 61 61 62 63 61 57 51 44 37 32 30 29 27 25 24 25 24 28 35
41 45 51 52 49 46 47 53 61 67 65 64 61 60 60 58 58 59 59 59 53 50 53 56 59 62 65 62 54 46 39 35 31 27 25 22 23 23 22 22 21 23 34
47 45 48 46 46 54 67 69 65 65 66 65 63 62 57 57 61 59 61 54 51 52 56 58 61 62 59 53 46 38 29 28 25 22 21 22 21 23 22 21 20 22 27
47 47 50 54 69 77 73 69 70 67 64 65 61 62 60 56 56 56 53 53 55 56 56 55 55 52 47 46 39 30 27 25 23 22 22 22 23 24 23 21 19 21 22
51 55 69 80 81 74 69 72 70 69 60 61 63 61 54 52 50 49 50 52 54 53 53 51 48 44 38 34 28 23 21 20 21 23 22 21 21 22 21 20 19 19 19
72 79 77 75 72 70 70 70 64 51 49 55 55 55 52 46 45 45 48 51 50 51 46 41 41 37 31 25 22 19 18 20 20 21 20 21 20 22 23 21 20 19 18
71 70 70 68 69 69 65 58 54 46 52 55 52 46 43 42 42 45 46 47 46 43 37 35 33 30 26 18 17 17 17 17 17 16 17 19 20 22 23 21 20 20 19
63 63 63 61 56 52 54 54 52 53 49 42 37 37 38 41 44 47 46 44 43 40 39 38 34 30 25 18 17 16 15 15 16 15 14 18 22 24 20 22 20 19 19

GFSGL_prec_cthk_003.txt.gz
RH
30 35 36 40 42 43 43 46 48 50 49 46 42 49 49 64 72 67 60 61 69 63 54 47 47 39 39 46 52 56 54 52 48 38 44 50 52 47 46 48 50 47 44
32 33 36 38 42 43 45 45 46 44 47 46 47 51 55 56 62 60 62 60 66 64 58 53 53 63 62 53 53 54 59 52 48 48 42 45 50 50 48 44 44 45 45
37 40 41 41 40 42 47 48 45 43 47 48 48 45 44 47 53 52 56 56 58 71 70 67 63 65 67 68 61 56 58 60 62 57 51 48 58 45 48 49 43 47 50
40 43 46 43 43 44 47 49 48 43 45 44 41 43 47 47 48 53 59 61 54 69 76 75 69 68 71 72 74 76 71 69 68 69 66 52 51 49 52 55 50 53 55
41 43 45 47 45 48 48 52 52 46 43 42 46 49 51 52 51 58 63 66 56 72 74 76 71 71 80 85 82 83 85 84 84 75 59 55 58 60 55 57 58 60 56
41 41 45 42 47 52 55 56 57 52 49 49 48 51 53 55 53 58 63 64 59 69 79 81 79 83 82 79 83 87 95 95 91 83 69 59 53 52 55 54 56 50 45
36 38 44 46 48 53 58 58 57 59 58 52 44 47 57 59 61 58 65 68 63 71 80 80 81 82 79 79 84 89 91 89 90 74 64 56 54 44 45 43 44 45 42
33 37 44 46 50 53 52 49 49 51 55 59 57 57 62 65 64 64 68 70 65 68 76 78 78 79 81 84 83 87 86 83 78 72 61 44 42 44 42 46 47 42 33
36 39 43 44 43 44 45 46 48 54 58 61 62 69 68 67 68 67 71 71 71 74 72 75 72 75 77 82 81 76 74 79 76 60 48 41 43 46 52 48 37 37 36
42 44 41 38 38 40 44 47 53 58 67 70 67 67 70 69 69 72 73 68 67 70 76 72 71 70 71 70 71 68 71 64 60 49 48 47 48 52 51 46 48 51 50
40 42 43 40 39 42 46 54 58 63 71 70 68 65 67 68 69 69 66 70 73 70 72 72 78 77 76 71 66 60 53 47 47 46 48 53 57 57 54 51 49 44 42
42 44 43 43 45 46 51 56 60 64 73 73 68 69 64 64 61 61 67 68 69 70 69 75 78 79 67 61 57 51 51 50 50 55 58 59 59 54 47 44 38 35 35
48 47 45 49 49 51 56 59 66 71 67 68 65 64 62 65 71 75 73 67 72 71 70 65 72 74 67 64 60 55 50 51 56 60 62 54 45 46 44 41 40 34 26
50 48 51 52 56 60 63 63 62 57 61 63 65 63 65 67 69 77 68 67 65 67 60 62 66 68 66 62 56 54 55 58 59 57 45 53 50 47 45 40 34 29 26
51 55 56 61 63 61 65 63 63 61 61 63 62 60 66 60 59 59 67 63 65 65 66 68 64 66 66 61 61 61 59 59 59 53 53 55 50 46 42 38 32 29 32
57 58 59 60 64 63 65 64 57 55 59 62 60 57 54 52 52 51 54 55 61 63 62 62 62 62 62 61 60 60 59 59 57 60 56 50 48 47 41 34 31 31 33
57 59 60 61 62 64 58 58 58 55 54 52 51 48 44 45 48 52 55 60 59 58 58 58 59 62 60 57 56 57 59 59 59 55 53 49 46 40 32 29 30 30 32
60 58 60 59 61 65 63 56 55 52 51 50 47 45 45 49 54 57 60 60 58 54 55 59 59 52 52 54 55 57 60 59 58 54 49 43 33 28 27 28 28 29 29
59 59 59 52 55 53 51 50 54 62 60 55 48 50 54 56 55 56 56 54 59 62 59 51 47 48 50 52 58 63 60 51 45 37 33 29 25 25 24 26 26 27 27
52 52 51 51 50 50 49 48 51 52 61 60 69 58 56 56 57 56 53 54 56 56 54 47 47 49 49 52 56 53 47 42 36 31 26 26 26 26 25 25 26 26 26
47 44 47 52 51 51 51 50 59 69 75 72 71 68 60 59 56 63 57 53 52 51 47 48 51 52 48 47 46 44 44 37 32 29 28 27 27 27 26 24 26 25 24
52 48 53 54 53 49 52 62 71 70 68 73 68 63 56 57 59 56 51 49 47 44 48 49 52 50 45 42 40 36 34 31 27 25 26 27 27 25 23 22 23 23 22
58 55 53 50 52 58 67 71 72 67 67 69 65 53 51 52 52 51 43 44 45 46 45 48 49 44 38 36 30 26 26 25 24 23 23 23 26 24 24 23 24 23 23
57 57 54 59 64 76 69 63 62 62 63 61 50 40 46 56 47 45 41 45 45 45 45 44 41 34 33 29 24 20 21 19 17 20 22 22 24 24 23 23 24 21 23
69 61 60 65 80 70 62 60 65 65 55 48 47 49 51 43 39 42 41 38 39 42 41 40 33 33 31 27 21 19 16 15 15 14 14 19 19 21 23 22 22 23 23
88 71 68 65 62 60 60 58 54 55 55 55 51 48 47 40 35 35 37 36 39 40 40 40 38 36 32 26 22 17 13 13 13 13 13 14 21 22 21 20 22 23 24

GFSGL_prec_cthk_006.txt.gz
RH
36 29 30 31 28 28 32 39 41 49 54 54 51 47 47 48 49 49 48 48 50 52 51 50 58 59 53 57 63 68 61 53 47 50 50 44 42 44 47 48 51 45 41
37 29 26 24 25 28 33 35 40 47 49 51 53 50 47 49 48 50 51 51 52 51 55 54 51 57 60 71 69 67 67 68 64 57 59 58 52 46 50 47 41 42 45
36 26 25 25 26 30 31 34 40 43 47 47 50 51 48 49 49 52 55 53 51 52 54 58 54 59 68 76 79 77 78 78 77 84 80 68 61 55 49 50 51 49 59
33 27 26 27 29 29 31 32 38 43 49 48 50 49 46 44 48 49 52 54 51 52 55 63 58 64 72 74 75 77 80 82 83 87 96 94 87 73 58 59 59 56 55
30 31 28 30 33 32 36 36 42 48 53 53 52 51 52 51 46 46 50 53 55 54 59 66 59 65 72 73 79 89 85 83 81 84 86 89 85 76 69 64 62 52 46
31 31 31 33 34 38 41 45 52 56 60 60 56 56 58 56 45 52 56 58 58 58 59 70 57 66 73 84 84 82 77 76 79 83 82 82 75 75 69 64 60 48 38
35 32 31 33 39 43 45 49 53 58 60 62 60 60 55 61 56 55 63 61 61 62 67 71 61 68 78 80 77 73 77 78 79 80 82 78 76 76 77 63 47 39 41
38 36 32 34 38 45 47 51 57 58 60 63 62 62 62 61 64 58 60 60 64 69 66 72 66 67 70 73 72 72 75 76 78 73 74 73 69 62 54 50 42 42 43
37 34 34 40 43 43 47 53 55 55 55 57 60 61 64 64 71 69 69 73 73 67 70 72 71 71 72 76 74 72 73 69 65 65 69 59 54 50 52 49 49 48 42
33 36 41 42 44 46 52 52 50 51 52 56 60 59 62 71 71 71 77 74 71 73 71 70 71 74 74 75 77 80 72 64 62 58 55 54 54 53 55 57 52 49 49
39 44 47 46 51 53 49 47 51 51 54 60 61 67 74 71 68 71 72 71 69 67 69 74 73 72 72 71 77 74 63 64 63 58 53 52 52 57 61 62 53 50 47
46 49 51 53 49 48 52 53 51 54 57 62 67 66 63 68 71 67 65 65 67 68 69 78 78 78 78 73 76 69 69 65 60 54 54 54 58 62 58 51 49 48 43
50 51 49 47 48 56 54 54 54 58 58 58 59 61 64 68 65 65 66 66 65 68 68 69 71 70 67 65 65 67 64 60 54 52 55 59 58 52 50 48 49 45 40
44 46 48 52 53 55 56 60 60 60 59 60 63 64 63 68 64 61 63 60 61 62 63 63 63 62 62 63 62 59 57 54 52 54 55 53 51 52 50 45 42 40 37
45 49 51 53 54 60 63 64 59 57 60 62 62 61 59 59 57 58 56 48 43 48 53 57 57 60 59 59 59 57 56 53 52 56 58 59 58 52 49 47 44 39 36
49 50 53 56 63 66 62 61 61 61 61 57 59 56 53 51 50 48 41 39 45 50 54 59 61 60 60 63 58 55 52 53 55 55 57 59 55 52 49 44 37 32 29
51 54 59 64 65 64 64 63 63 60 58 55 52 52 49 44 43 44 42 49 51 57 58 58 56 58 59 55 50 51 53 53 54 57 54 52 49 44 37 29 27 27 27
63 62 65 65 71 70 66 62 56 54 51 49 47 46 45 44 45 46 49 51 55 55 52 53 54 56 50 45 45 44 48 52 54 50 44 39 35 30 27 26 26 26 27
67 66 70 72 66 74 70 67 56 49 47 53 47 43 42 46 51 52 54 53 53 54 54 54 52 48 43 43 43 42 46 50 46 40 36 31 28 27 27 27 27 28 28
61 72 68 64 67 68 65 52 49 48 57 61 56 50 55 50 51 51 51 49 51 49 50 51 50 45 43 44 44 41 42 40 39 39 34 29 27 28 27 28 27 26 25
66 67 65 65 64 47 49 50 53 54 52 53 58 59 58 51 49 46 45 50 46 44 46 44 44 44 45 45 43 37 35 33 33 32 28 26 25 27 28 27 26 25 24
57 50 55 55 56 53 51 54 53 53 54 62 67 62 59 56 49 46 48 46 45 40 39 41 40 44 46 42 39 34 32 26 26 26 23 22 25 28 27 26 25 24 23
82 66 49 56 65 73 54 56 56 60 67 64 59 57 59 55 47 41 48 48 44 38 39 41 42 42 42 36 30 27 23 22 24 22 20 21 22 25 24 24 23 22 22
75 67 78 84 64 60 62 62 63 69 67 61 61 62 58 59 50 38 45 41 38 38 39 37 39 41 37 31 28 25 21 19 19 16 16 16 18 21 21 22 22 20 23
70 73 72 63 66 65 69 70 76 71 65 65 61 53 49 50 47 42 33 32 34 33 35 38 38 37 32 31 28 22 19 16 15 15 14 13 14 18 22 21 20 20 24
87 65 68 78 80 69 67 78 71 67 66 67 56 51 52 51 47 40 35 33 34 34 36 35 35 38 36 32 27 22 20 16 13 13 13 14 16 21 23 18 21 19 22

GFSGL_prec_cthk_009.txt.gz
RH
34 30 24 23 29 31 28 33 40 43 47 48 47 47 49 53 49 46 47 55 53 54 54 52 52 52 55 55 62 68 72 75 73 72 70 70 67 57 45 43 46 50 50
34 32 23 23 25 26 29 32 34 39 43 45 49 49 52 52 48 47 49 53 52 54 55 54 57 56 62 50 57 66 74 81 80 76 78 81 82 80 79 66 50 49 54
34 31 25 22 23 26 28 30 32 35 41 46 51 52 53 52 53 53 51 52 51 54 54 56 59 56 59 51 66 72 75 78 81 82 81 81 80 83 84 88 76 62 63
31 28 26 20 21 25 26 28 32 36 40 46 49 50 53 54 56 58 52 51 49 53 56 58 60 63 64 61 62 70 74 76 82 84 80 76 76 80 82 79 78 75 66
32 26 23 21 22 27 29 30 31 35 39 44 46 50 55 60 61 59 53 53 52 51 57 60 63 67 70 65 64 69 74 83 81 81 78 77 75 76 77 71 66 66 63
36 26 24 23 25 29 30 32 37 39 41 46 50 57 63 62 67 62 60 54 52 53 56 60 65 76 67 67 66 74 77 79 75 78 81 79 77 76 74 67 63 59 56
34 32 27 23 25 30 36 40 42 44 48 53 57 62 65 72 71 64 61 57 56 56 64 66 68 79 73 69 74 82 82 77 74 73 74 74 70 67 67 64 58 51 43
36 33 34 29 25 31 39 42 45 49 53 60 65 70 72 70 67 65 64 61 64 65 67 71 71 72 75 77 77 83 84 81 78 79 74 69 67 64 58 56 54 48 47
33 35 34 33 27 30 39 47 51 56 65 71 72 69 64 62 65 68 68 68 67 70 74 78 74 74 75 71 82 84 83 82 82 82 69 65 62 62 61 60 53 53 49
30 36 35 36 34 34 45 51 55 65 71 75 64 59 61 64 65 71 66 66 67 71 69 67 68 76 75 77 81 81 80 81 85 72 65 64 65 63 56 55 56 55 57
32 42 42 40 40 41 50 55 71 72 67 56 55 55 60 64 64 63 64 65 71 68 66 70 74 74 75 78 83 82 80 80 75 67 64 65 58 54 57 58 58 56 53
41 45 45 40 42 50 58 66 65 59 55 53 52 63 65 64 63 63 67 66 64 64 62 62 63 67 72 78 79 74 66 68 66 63 58 53 53 56 57 55 54 53 53
49 48 47 48 52 59 64 66 60 54 60 54 55 65 66 64 61 64 63 62 62 60 57 55 58 65 68 66 64 62 62 60 58 54 50 52 53 54 53 51 54 54 44
50 54 56 61 63 63 67 58 56 54 57 58 60 60 62 58 60 60 60 57 58 56 54 55 54 59 57 55 55 57 58 57 53 47 46 51 53 55 56 55 51 46 44
54 65 65 65 62 56 56 57 57 57 59 59 58 59 60 57 55 55 51 52 50 43 43 46 50 50 52 54 56 56 52 48 44 45 48 53 55 54 54 51 47 44 38
60 68 62 55 51 54 56 59 60 61 61 60 58 60 57 51 49 51 47 43 39 41 44 48 52 52 50 53 52 47 42 42 44 47 49 52 51 46 41 38 33 28 26
50 51 55 55 54 54 60 61 63 61 62 64 64 61 55 50 49 47 43 41 44 47 50 54 54 50 50 47 46 44 40 41 42 46 48 50 43 36 30 26 25 25 25
52 53 56 57 59 60 64 70 67 69 73 71 69 58 51 46 47 43 43 48 49 50 53 52 50 46 46 47 39 37 39 37 39 43 44 41 32 29 28 26 26 28 28
57 59 61 63 65 72 75 74 77 74 67 57 52 46 45 46 45 49 49 49 47 46 45 46 45 41 40 41 39 38 39 37 38 37 32 34 29 26 24 24 26 27 26
65 72 74 77 82 78 76 76 72 68 59 52 49 53 56 45 49 46 46 44 43 42 45 43 42 41 38 39 40 41 41 34 32 27 29 28 23 20 21 26 27 25 25
84 74 78 84 87 79 69 65 61 63 57 55 50 43 43 51 51 51 44 42 38 39 41 40 41 39 39 38 37 39 37 30 27 23 25 23 19 19 23 24 23 23 21
79 72 74 81 77 78 75 72 65 65 60 57 48 50 59 59 56 54 51 42 33 39 40 40 35 35 38 36 36 36 32 29 24 22 23 20 19 19 21 20 20 20 20
80 73 76 81 83 85 78 64 60 59 58 53 52 61 60 54 54 54 48 42 36 37 44 39 36 35 37 38 36 35 31 24 21 21 21 19 17 19 19 19 19 19 20
78 88 89 86 83 79 77 69 62 57 57 59 62 63 60 58 54 50 46 43 39 41 33 34 34 36 35 35 34 31 29 23 19 18 17 15 14 15 18 18 18 18 20
71 81 93 88 81 74 75 73 63 72 72 68 62 66 67 56 46 42 42 41 34 30 30 28 31 36 37 35 31 29 27 21 18 16 14 13 13 17 19 18 17 17 18
80 82 83 89 90 88 82 72 76 68 69 74 70 67 54 56 47 44 42 37 32 28 28 29 31 32 30 31 32 32 25 21 19 15 12 12 12 17 18 20 17 18 18

GFSGL_prec_cthk_012.txt.gz
RH
35 32 27 23 23 27 30 31 30 36 41 45 47 47 49 51 54 53 48 49 51 53 51 52 46 53 54 54 57 56 58 62 69 73 73 75 74 73 72 71 69 69 56
36 35 32 24 20 26 29 29 32 37 39 43 44 46 48 52 51 53 55 49 47 48 51 51 50 54 58 63 57 61 57 66 66 72 76 77 75 75 75 77 78 78 77
38 36 34 27 21 26 25 31 32 33 38 45 49 53 54 51 52 55 57 55 48 46 49 52 52 54 57 61 61 58 58 66 69 74 78 76 75 76 74 72 76 77 80
36 34 33 27 19 22 26 29 31 32 35 41 48 52 53 54 58 59 60 60 57 50 49 52 52 55 59 62 70 56 65 68 72 71 72 75 73 75 77 76 73 76 74
31 29 29 29 19 20 25 25 29 30 34 38 42 46 52 56 58 61 65 67 66 58 53 51 51 54 64 65 76 67 67 66 67 69 75 75 73 72 70 73 74 73 68
33 29 27 26 23 19 22 26 26 31 34 37 41 46 50 57 60 66 69 72 70 67 59 51 55 60 66 72 79 74 72 74 74 77 77 73 72 69 68 68 65 64 61
33 32 30 26 24 20 23 26 26 30 35 39 43 50 57 63 68 72 74 72 74 71 64 56 57 65 69 76 77 75 75 78 80 82 79 78 78 77 67 64 62 60 57
32 33 34 33 25 23 24 27 31 37 39 43 48 56 69 84 87 76 75 68 69 68 65 57 63 68 70 78 74 77 79 81 82 89 88 84 83 79 70 65 62 59 57
32 31 34 38 36 30 25 27 32 38 42 47 53 61 66 54 75 71 67 65 66 63 60 62 64 68 73 77 76 79 78 80 84 86 86 85 82 72 67 63 60 56 53
34 31 28 33 40 39 34 27 30 38 51 56 63 64 62 61 66 69 68 65 64 62 61 64 68 66 68 75 76 74 80 88 90 88 84 78 71 65 65 60 55 54 55
31 31 31 30 39 42 43 37 35 42 57 62 71 72 64 60 62 64 66 64 63 62 60 62 63 65 66 69 74 82 90 91 85 73 69 68 62 58 55 54 53 50 50
32 34 34 33 34 45 46 43 51 55 57 63 66 69 68 64 61 62 65 62 61 59 58 61 62 58 58 59 68 73 73 66 61 60 59 56 50 50 48 49 52 52 50
37 36 34 35 36 43 48 51 56 59 61 64 70 66 66 60 65 66 64 59 57 56 57 55 53 53 51 56 64 63 58 57 57 56 52 44 40 41 46 49 53 54 54
37 39 36 36 36 43 52 56 57 62 64 70 68 65 58 63 64 63 61 58 60 59 55 49 47 45 50 55 53 52 53 54 52 45 39 38 40 46 47 46 47 44 43
39 47 44 45 47 55 61 66 71 73 76 70 61 59 59 60 60 58 59 60 59 52 47 40 41 47 46 44 48 50 50 48 40 38 37 39 43 46 46 44 37 35 31
53 57 61 58 64 69 78 87 91 81 71 63 57 57 61 59 60 58 57 57 46 37 35 37 42 42 45 43 43 44 44 41 37 36 38 41 42 43 42 32 23 23 24
63 61 66 67 64 90 65 61 80 67 68 60 58 56 66 61 60 57 58 47 36 34 38 40 41 42 39 38 39 40 37 33 32 33 34 37 38 41 36 22 21 23 24
66 72 71 75 58 57 58 58 72 65 65 62 58 69 74 72 65 55 42 40 38 40 41 41 41 37 37 36 38 36 34 33 35 37 35 36 33 28 22 20 18 20 24
61 64 65 59 59 63 66 67 73 73 74 69 73 77 75 69 50 47 44 42 42 43 39 35 34 38 36 33 32 33 35 36 37 37 32 27 24 23 19 17 18 23 24
69 73 68 67 68 69 68 72 74 75 69 73 69 68 61 50 47 47 43 42 43 40 36 35 39 38 36 34 34 35 37 37 34 28 24 21 22 19 17 18 21 21 21
66 76 73 69 68 68 68 73 75 75 78 79 80 64 58 54 51 43 47 47 44 39 35 33 36 37 35 34 36 36 35 36 34 26 21 20 20 18 18 19 20 19 19
68 73 72 81 81 81 81 78 79 81 76 76 80 72 58 49 51 52 53 50 47 44 38 32 33 36 35 33 32 34 33 31 30 23 20 19 18 18 16 18 18 18 18
82 84 80 80 79 82 87 88 88 84 80 69 78 74 60 56 59 57 52 49 48 44 43 37 37 39 36 35 34 31 31 30 28 24 19 19 18 16 14 17 19 18 17
87 82 87 86 85 86 89 86 91 85 83 74 65 62 62 67 66 60 55 54 47 43 44 43 38 31 33 32 35 31 29 30 28 24 17 16 14 13 12 15 19 20 18
82 81 78 78 84 84 88 90 90 88 82 76 73 71 68 66 63 65 59 46 39 42 40 37 31 28 28 34 35 33 27 25 23 20 17 15 12 11 11 16 18 19 19
73 69 70 78 88 90 91 90 84 79 79 83 78 74 70 73 71 63 52 47 43 40 36 31 28 29 30 31 30 30 27 23 20 18 16 14 11 11 12 15 17 18 19

GFSGL_prec_cthk_015.txt.gz
RH
39 38 39 33 27 26 27 25 27 27 33 37 42 46 49 50 48 51 52 52 49 47 47 48 48 47 45 57 62 59 57 57 58 63 66 67 73 75 74 76 76 76 77
37 39 36 36 30 25 27 26 25 28 32 36 43 46 50 53 52 51 52 56 57 48 44 47 50 49 46 50 60 61 64 61 58 62 65 69 71 72 69 71 72 72 72
39 39 36 34 31 25 23 26 25 26 30 36 42 46 49 50 50 52 58 60 64 64 56 50 52 53 51 51 60 61 63 63 59 65 68 68 69 71 71 69 67 67 70
37 36 34 32 32 24 21 26 26 26 29 34 39 44 49 52 53 57 60 64 68 73 73 65 56 54 55 56 64 63 64 64 60 68 68 73 67 71 75 72 70 68 68
36 33 32 34 35 29 21 25 26 27 31 35 40 46 50 53 55 57 59 62 72 77 79 73 65 56 56 56 58 67 72 66 61 66 74 75 74 83 80 75 72 70 67
37 32 33 35 34 30 23 22 25 28 30 33 37 41 44 47 51 52 60 69 81 82 76 75 67 59 56 57 58 64 74 69 71 72 77 78 81 83 79 76 76 72 67
32 32 34 36 34 31 28 22 23 25 29 30 34 37 38 42 43 52 61 63 66 79 77 76 68 58 55 57 61 68 73 72 72 73 81 87 84 83 85 82 79 74 65
36 35 34 34 34 31 32 26 23 25 26 28 32 36 39 41 47 56 66 57 59 70 76 77 68 58 52 55 68 71 76 75 74 78 77 80 87 88 80 78 71 65 62
34 34 36 36 35 33 30 30 27 27 27 27 33 38 40 45 56 62 67 61 64 76 78 69 63 58 54 61 68 70 68 71 73 71 78 82 83 79 74 66 67 62 58
33 31 32 34 36 38 37 35 35 31 31 31 36 40 44 54 59 61 62 63 70 75 68 64 58 55 61 62 63 66 67 65 69 80 83 76 70 64 62 60 55 50 49
39 38 36 37 34 35 40 43 38 37 35 35 40 47 53 61 64 69 63 65 67 66 63 60 58 58 60 59 59 60 63 60 66 73 68 61 56 54 47 42 40 39 42
40 40 42 40 39 41 38 42 48 50 47 42 45 47 57 64 67 67 68 62 59 61 60 58 56 59 57 53 53 51 50 59 64 60 54 51 47 38 36 35 38 41 42
43 40 39 44 41 41 44 47 51 54 64 59 55 56 59 65 69 73 69 58 58 59 55 57 62 58 51 46 44 45 51 51 49 47 45 40 34 31 33 36 39 39 38
34 35 39 39 41 33 44 51 52 59 64 65 66 70 70 74 80 77 65 63 61 56 59 63 59 55 45 41 44 45 45 43 41 41 36 32 31 32 35 39 40 37 28
30 35 38 41 43 47 48 51 58 57 63 69 72 84 88 82 75 60 65 62 60 60 59 61 58 44 40 43 40 40 40 38 38 35 32 30 30 33 36 36 37 32 22
37 38 36 39 47 50 48 50 66 72 77 87 90 85 75 80 70 65 58 62 64 64 62 52 38 37 40 39 37 36 37 36 36 33 29 28 30 32 31 33 33 24 17
45 44 44 45 47 56 65 63 70 73 77 92 85 66 66 64 63 60 65 65 68 68 55 40 35 35 36 36 32 35 36 34 31 28 28 29 30 30 30 28 23 18 15
52 56 58 66 72 90 90 94 75 70 71 72 91 63 63 63 64 75 74 73 70 55 39 39 37 35 35 31 30 33 34 31 30 30 28 31 29 27 23 22 18 15 18
87 72 84 72 93 82 78 85 78 74 66 71 77 69 68 65 71 76 74 68 51 44 41 38 38 34 31 31 31 30 30 30 32 32 29 29 24 21 20 18 15 17 20
88 96 92 97 82 68 59 56 64 83 71 69 76 75 76 77 77 75 62 56 55 48 39 36 36 33 29 32 33 33 30 32 34 31 27 25 20 19 19 16 15 17 19
92 91 86 80 74 70 61 62 71 70 74 77 82 80 79 82 71 68 66 54 51 45 42 39 34 34 30 31 36 32 28 34 33 30 27 24 18 18 18 16 16 17 17
77 77 76 76 73 76 79 79 77 75 76 74 81 82 78 76 69 67 56 53 54 52 46 39 38 36 29 31 36 34 34 34 33 30 27 22 18 17 16 16 15 16 17
71 73 74 77 75 71 75 79 82 83 87 85 80 79 79 78 69 65 61 58 55 47 41 38 41 40 40 38 37 35 34 33 31 27 26 22 18 17 16 13 12 15 17
81 79 79 76 78 78 80 80 85 86 86 89 89 84 83 81 75 65 61 62 53 48 45 42 39 41 41 37 32 34 34 35 30 26 24 21 16 15 14 12 11 14 17
83 83 82 81 75 80 83 86 92 89 85 88 87 83 78 71 69 74 65 60 56 53 46 37 35 36 36 32 28 32 34 35 28 22 20 18 17 15 13 11 11 15 17
86 86 85 84 82 80 81 86 90 89 91 91 87 83 81 81 80 72 66 62 59 54 47 37 32 32 31 30 29 30 33 30 21 17 16 17 16 13 11 11 13 15 17

GFSGL_prec_cthk_018.txt.gz
RH
39 40 38 37 37 36 33 31 26 26 25 28 39 42 42 46 50 51 50 50 51 49 48 48 49 48 47 47 49 58 60 57 60 59 58 64 67 69 72 75 74 72 72
38 42 40 39 39 38 33 29 26 26 26 29 36 40 41 45 48 51 49 50 55 59 60 56 57 57 54 51 48 52 64 58 58 58 57 61 66 69 71 73 72 72 74
40 40 41 41 38 37 36 29 26 27 27 28 34 38 39 44 47 50 49 52 60 64 72 75 66 61 61 56 52 51 58 62 63 60 56 60 64 66 69 66 66 72 69
41 40 38 38 38 35 35 29 24 25 28 27 34 37 41 45 48 50 50 53 59 66 74 75 74 67 62 56 54 53 55 58 63 63 57 62 68 72 74 68 71 74 71
41 39 36 34 36 36 34 33 22 24 26 25 31 35 42 44 47 46 48 51 55 62 69 71 73 72 63 54 54 54 55 57 64 69 62 63 70 73 72 78 78 80 77
36 35 35 34 35 36 36 36 24 23 27 25 27 33 38 40 44 49 48 47 50 63 70 73 75 73 67 57 50 52 55 59 65 67 63 66 68 75 77 79 75 79 83
34 35 34 33 34 36 38 37 32 21 25 25 28 34 36 40 47 50 48 47 50 57 63 68 64 72 68 58 54 52 55 58 66 68 66 69 70 73 74 76 82 79 72
35 36 37 36 35 37 38 37 37 28 20 23 27 31 36 40 47 47 45 45 45 58 63 65 66 68 66 59 56 52 55 60 65 67 67 66 70 69 76 77 69 67 62
34 34 37 36 36 38 37 36 35 36 26 21 24 29 34 36 40 40 43 46 49 56 65 64 67 66 65 62 56 52 56 62 64 68 62 60 64 68 67 63 57 53 48
35 35 34 37 39 38 39 39 39 38 38 32 28 29 33 33 34 36 42 48 53 59 64 66 66 64 63 58 54 53 59 64 65 58 54 62 66 63 59 48 41 37 35
37 45 41 40 40 41 41 48 48 46 44 45 36 30 32 34 35 37 45 52 57 62 61 64 68 65 56 54 57 63 60 59 54 57 58 60 59 51 39 34 31 29 31
42 45 46 49 46 42 42 37 43 54 54 52 53 46 39 38 40 44 52 63 70 69 71 71 66 59 54 56 59 61 53 49 51 51 54 53 43 36 30 26 26 28 31
45 46 47 46 53 55 57 50 45 53 54 58 56 61 56 51 49 52 63 74 81 76 73 69 61 59 58 58 62 55 41 43 46 48 44 37 34 29 26 25 30 32 32
38 41 50 49 47 48 55 51 55 58 60 46 50 56 58 60 62 73 82 87 89 81 74 72 63 53 57 58 48 42 39 42 43 41 36 30 29 27 26 29 32 32 31
25 29 34 41 43 43 43 43 44 44 52 59 56 59 63 68 79 89 91 91 88 78 65 68 55 55 63 62 41 40 38 41 37 32 33 28 28 26 27 30 29 27 26
25 24 24 26 30 37 45 48 53 55 56 62 65 71 84 83 97 90 87 85 89 86 62 61 56 63 63 48 40 39 36 33 31 31 30 27 26 27 29 29 27 24 20
26 25 25 26 25 28 36 43 50 56 64 73 79 74 83 88 70 87 83 68 75 71 66 69 69 69 56 44 37 34 31 30 31 30 25 25 26 28 29 27 22 18 17
30 29 32 29 29 33 37 47 53 55 58 71 71 73 67 70 73 78 74 65 83 75 72 71 70 57 44 44 36 32 29 30 30 27 24 27 28 30 27 19 18 16 14
30 36 41 51 63 73 66 61 64 64 68 74 82 88 82 82 82 79 65 69 71 69 74 68 51 43 39 35 33 31 32 31 29 24 27 29 28 28 20 17 16 14 13
41 49 54 64 74 89 98 95 86 78 81 91 74 98 78 78 85 70 64 69 69 75 74 57 47 45 35 34 35 33 31 29 26 25 27 26 27 24 18 16 16 13 13
56 57 55 62 83 93 87 94 81 72 67 64 80 86 72 74 76 70 68 74 80 76 62 54 42 37 35 37 36 33 32 30 28 25 26 28 29 22 17 15 14 13 13
60 66 69 67 70 76 82 81 71 66 69 81 84 78 72 77 79 78 79 80 77 70 58 53 51 50 41 37 37 33 33 32 29 27 26 26 27 22 17 16 15 13 13
64 67 71 75 78 80 80 78 77 81 81 77 75 77 81 88 88 84 82 78 74 62 60 58 52 43 40 40 37 37 34 32 31 26 27 25 26 23 18 16 15 11 12
79 79 75 75 78 82 83 88 87 86 86 84 85 86 88 88 82 78 78 78 70 68 66 58 49 47 45 40 37 34 33 30 32 28 27 24 23 22 16 15 12 11 11
90 86 82 79 82 90 94 91 89 89 89 89 88 83 83 84 81 82 84 80 76 72 66 64 56 50 44 38 35 34 32 32 28 25 27 23 19 17 16 14 13 10 11
83 88 91 90 85 90 93 95 97 97 99 98 96 96 94 97 95 87 80 82 83 76 69 60 53 51 46 37 35 34 31 32 28 25 22 18 17 16 15 14 12 11 13

GFSGL_prec_cthk_021.txt.gz
RH
39 38 38 34 33 35 36 35 31 29 31 29 26 31 40 40 44 45 48 49 48 47 48 50 53 56 55 54 49 47 47 54 56 53 50 54 58 60 61 61 63 69 70
38 41 39 40 39 38 37 36 35 29 28 31 28 29 38 41 42 44 47 48 46 47 50 56 58 55 52 54 53 49 46 45 53 54 55 50 54 58 62 62 64 64 68
38 39 42 42 41 39 40 40 39 33 25 28 29 27 35 39 40 43 46 49 46 48 53 59 60 59 54 49 52 51 49 46 46 52 56 55 49 53 58 62 66 65 62
38 37 38 38 37 37 42 38 38 37 27 25 29 27 32 38 38 41 44 47 45 47 51 61 63 65 62 55 52 51 51 48 45 48 53 60 55 52 58 59 63 65 64
39 37 35 40 41 37 39 39 35 36 31 23 25 28 27 35 36 38 40 44 45 47 51 56 59 65 62 62 54 53 52 51 49 50 54 60 61 56 58 61 63 69 71
38 39 37 39 38 34 36 38 39 37 35 25 22 26 25 29 34 37 40 41 44 46 49 52 56 62 66 67 62 58 56 52 50 51 52 57 61 60 63 61 65 74 79
37 42 38 42 42 35 35 37 38 38 38 30 22 24 24 27 31 35 38 39 42 45 45 48 51 61 68 67 70 66 59 55 51 49 51 54 63 62 58 60 68 67 68
41 39 38 39 42 40 37 36 38 40 38 36 27 24 24 24 28 33 38 41 43 43 46 47 54 61 66 66 70 70 62 60 49 48 49 53 55 55 51 60 61 63 59
41 38 37 35 37 41 42 40 39 42 42 39 33 26 23 21 24 31 36 41 42 42 46 47 56 64 68 66 73 69 65 61 53 55 50 53 52 50 55 59 57 54 46
35 35 38 41 43 41 44 46 45 44 41 43 39 34 29 27 26 29 35 41 43 43 45 46 56 66 66 70 70 73 66 57 56 56 53 46 50 52 55 53 49 39 37
30 31 32 34 39 42 43 41 47 49 49 46 44 41 38 31 31 33 37 43 43 42 45 48 58 71 68 69 70 74 68 56 61 59 50 44 50 50 49 44 32 29 28
30 31 30 32 36 42 43 44 45 43 45 48 49 51 45 45 40 34 36 41 40 41 43 50 67 73 74 73 70 73 62 61 59 54 43 46 48 48 40 31 25 22 22
32 34 35 38 41 45 47 46 49 47 43 46 50 53 51 52 57 54 54 47 45 47 46 58 72 81 82 74 70 72 67 64 62 47 45 44 44 37 30 26 22 21 24
31 35 37 37 41 46 47 50 50 51 54 50 53 52 48 50 44 57 64 69 68 71 75 83 82 83 92 73 73 68 64 68 58 43 41 40 35 31 28 25 22 22 25
26 29 31 33 35 38 41 42 49 49 56 61 56 57 59 46 35 55 78 82 80 73 74 97 87 98 90 77 66 67 63 61 46 43 38 35 31 29 26 24 22 24 25
21 23 23 23 24 27 33 33 38 41 45 53 60 56 59 55 62 76 87 85 78 78 82 78 87 89 80 68 65 68 67 57 47 40 34 31 31 27 27 23 23 22 24
28 28 27 28 32 31 32 33 36 36 38 42 52 59 60 63 74 81 82 78 75 78 85 86 79 71 69 67 70 71 65 56 42 34 30 31 30 27 24 25 22 22 19
30 28 27 27 31 33 36 41 43 44 46 46 49 50 60 74 79 81 76 80 84 80 74 78 69 74 73 71 71 66 49 45 35 29 30 28 25 24 25 26 21 19 16
35 33 33 34 34 37 38 41 48 54 57 53 60 58 61 72 79 75 76 73 72 78 81 83 71 69 72 69 62 52 48 37 33 29 28 28 24 25 25 23 19 16 14
43 44 42 40 40 42 43 50 49 53 74 89 97 88 77 64 64 59 63 67 67 70 92 86 72 75 71 66 50 48 41 35 34 30 28 25 25 23 22 22 18 16 15
47 47 47 44 47 48 52 52 47 61 71 84 91 99 92 77 70 71 70 68 73 78 88 82 78 77 66 52 55 45 37 36 35 30 27 27 24 23 22 22 18 16 14
56 54 54 57 57 57 55 57 59 68 74 84 93 96 95 83 78 76 85 87 84 82 79 80 76 69 59 51 46 41 41 38 35 29 28 29 25 21 22 22 18 15 14
65 62 62 63 68 66 71 68 70 82 80 83 87 92 95 86 79 79 83 83 85 83 79 78 73 63 56 51 51 46 42 41 37 34 32 29 25 23 22 23 19 16 15
69 69 67 70 73 75 78 76 79 83 84 83 90 90 89 88 85 86 86 85 84 84 82 77 71 62 53 51 48 45 45 41 36 30 27 26 25 23 21 22 18 16 15
69 70 75 81 84 86 87 84 89 91 92 89 86 89 89 87 91 90 89 89 86 83 81 73 64 55 52 51 48 43 38 36 31 27 29 30 28 24 20 21 16 14 13
76 76 79 86 85 88 90 90 90 91 94 95 92 89 92 93 87 85 85 86 83 80 73 68 62 60 59 55 50 44 37 34 33 31 30 31 28 24 20 17 17 16 15

GFSGL_prec_cthk_024.txt.gz
RH
33 31 29 27 26 26 29 30 30 29 28 28 29 25 23 32 36 37 41 44 39 39 43 46 49 51 55 55 50 51 53 51 47 51 53 52 48 51 56 54 57 59 64
35 36 34 35 34 30 27 28 29 31 30 28 28 29 25 27 34 34 38 43 42 42 43 46 48 49 52 51 51 51 53 52 49 47 51 50 49 54 49 55 58 63 68
39 38 38 36 36 35 35 34 36 37 33 28 25 25 25 25 31 34 35 38 42 41 43 45 53 54 50 53 51 51 53 53 49 50 49 52 54 55 55 50 55 60 61
43 40 40 36 36 37 40 40 37 38 39 36 30 23 24 25 29 33 32 35 39 41 41 44 49 53 55 55 53 54 55 55 56 54 55 51 53 58 60 57 61 64 64
44 44 39 35 36 39 41 38 38 40 39 39 37 29 22 26 27 30 30 33 36 39 40 42 46 50 53 56 58 58 61 58 60 62 61 54 50 55 57 60 61 61 58
38 40 43 40 37 39 43 41 37 38 40 41 40 37 25 21 23 25 27 29 33 35 39 39 44 48 50 57 60 61 64 64 65 62 64 62 55 51 54 61 59 58 60
36 40 44 43 38 38 44 45 41 39 43 42 42 41 34 21 20 18 21 24 25 29 33 38 44 48 49 51 58 67 67 68 69 67 63 67 65 61 57 57 58 52 58
34 37 40 44 43 47 46 44 42 41 39 40 41 40 38 28 19 20 22 25 28 31 37 41 45 49 48 50 57 65 70 69 66 65 64 64 67 66 56 54 53 49 50
33 33 37 42 43 43 42 44 44 45 43 40 42 42 40 33 25 21 22 25 29 35 40 44 47 48 49 50 56 65 73 70 68 67 64 65 61 57 50 52 50 51 52
32 39 39 39 42 42 39 41 43 42 45 49 48 44 42 39 32 26 24 26 30 32 38 41 41 45 49 52 59 67 77 75 75 72 63 62 63 52 46 44 52 52 46
31 33 35 36 38 39 38 38 41 43 46 48 46 45 46 42 41 34 32 31 30 35 39 44 44 45 52 54 62 71 81 77 83 81 67 64 65 56 43 43 47 43 33
28 29 29 29 36 37 36 37 40 44 44 44 43 45 48 45 44 44 37 37 38 39 37 38 42 41 50 57 60 67 75 84 84 80 71 72 69 65 42 41 41 29 25
28 29 30 33 34 34 36 36 39 44 46 47 46 47 47 47 47 45 45 44 43 46 51 48 46 46 53 58 62 70 81 87 83 77 76 78 72 65 40 37 30 21 19
23 29 32 37 39 40 41 40 41 45 49 54 60 57 52 53 51 50 51 53 58 66 58 54 57 62 64 60 65 75 77 95 87 86 79 77 70 52 38 35 29 23 22
24 25 26 30 34 38 40 43 41 41 48 53 54 61 61 58 53 55 56 67 66 69 66 72 75 70 72 74 78 79 80 86 85 83 78 72 63 44 36 32 26 25 24
21 21 23 26 30 33 38 40 36 36 38 36 38 46 51 54 62 60 55 64 74 78 85 80 83 86 86 85 85 83 88 83 85 81 75 70 64 42 35 32 24 24 23
26 25 27 25 26 29 32 36 37 38 38 36 34 35 39 43 41 41 54 68 72 76 79 75 75 96 91 85 88 84 81 82 79 78 76 73 53 37 32 30 26 24 23
30 29 31 32 33 35 33 33 32 32 32 32 35 35 40 48 52 50 52 57 63 73 78 77 72 80 77 76 78 79 84 83 77 81 79 58 45 34 32 26 24 23 23
41 40 39 38 38 37 36 35 34 36 36 35 34 37 41 44 52 55 66 67 75 70 65 69 76 78 81 77 78 78 74 80 82 78 61 51 40 33 30 26 22 22 21
47 44 44 45 47 47 48 47 44 41 42 42 44 44 44 48 59 69 90 94 97 91 74 73 72 77 81 79 76 81 74 82 75 57 51 43 37 31 28 25 22 20 19
54 51 50 50 48 49 52 50 51 49 47 50 52 51 56 56 64 87 97 98 99 98 88 84 84 78 79 80 83 73 77 79 62 55 47 40 35 30 27 25 22 20 18
57 52 51 52 55 56 57 59 58 59 60 58 57 56 62 62 68 77 84 90 93 93 90 88 85 85 86 89 73 74 75 65 59 51 43 39 33 29 29 25 22 20 19
65 61 60 60 63 67 68 66 67 69 65 65 65 71 74 78 88 91 89 91 91 91 93 92 96 96 90 80 79 70 65 59 52 48 45 41 37 33 30 27 22 20 20
64 67 70 72 71 75 76 73 73 74 70 73 74 78 80 86 88 92 90 91 96 94 89 89 88 78 81 80 71 65 61 55 53 48 44 42 41 39 31 29 24 21 20
69 71 72 78 79 79 81 80 80 77 74 78 84 86 85 87 92 96 94 92 90 88 86 83 82 81 78 76 73 65 60 57 56 52 47 45 40 34 26 27 23 23 20
72 71 73 75 74 80 84 85 86 83 81 85 86 90 93 94 93 94 94 95 93 89 84 81 80 79 77 74 65 60 57 56 54 49 43 36 31 30 29 25 24 22 19

GFSGL_prec_cthk_027.txt.gz
RH
23 18 15 16 18 19 22 25 26 26 28 28 30 26 26 24 23 32 36 40 41 41 42 44 45 47 54 58 54 50 54 54 51 52 52 51 48 44 48 51 50 51 51
33 30 27 25 22 21 20 22 24 27 29 32 32 30 28 26 25 28 33 36 40 41 42 41 46 48 50 53 50 53 55 54 54 52 53 56 52 50 46 49 50 55 56
38 36 36 32 30 27 25 25 26 26 28 28 30 30 26 25 24 24 28 31 35 39 41 42 44 45 46 46 46 51 52 54 58 55 57 59 59 57 56 54 52 52 49
48 46 40 37 33 33 34 32 30 30 30 33 34 33 30 23 22 20 21 25 27 31 33 36 43 42 43 45 47 48 50 53 59 63 63 59 62 62 61 60 58 51 57
43 45 44 44 42 42 41 39 38 36 34 35 37 38 36 32 25 21 23 24 25 26 31 34 39 41 43 41 43 50 51 54 57 63 66 65 64 65 68 64 67 61 57
34 34 38 47 47 43 42 41 43 40 35 34 35 37 39 38 34 24 21 20 24 28 33 37 39 42 43 45 43 47 49 50 58 65 66 65 63 63 68 69 70 62 55
35 37 38 39 45 47 45 42 40 38 41 36 35 38 39 40 39 33 23 21 21 24 30 34 36 38 39 42 41 46 50 51 54 64 71 70 69 64 66 67 68 61 50
33 34 37 37 40 45 45 40 42 41 40 40 39 38 39 37 39 39 33 25 24 25 26 27 31 32 35 39 42 44 49 52 52 61 68 67 68 68 63 60 65 59 48
30 31 35 37 37 40 44 44 45 41 43 40 42 45 39 37 38 40 41 36 30 27 25 25 29 31 31 33 40 42 46 51 54 56 68 66 68 67 63 64 62 69 54
29 29 33 38 35 37 43 44 47 47 42 45 43 42 41 40 41 43 43 43 37 33 32 31 29 31 33 36 38 42 46 47 54 54 64 69 70 70 66 64 67 72 66
30 30 32 33 35 39 41 43 44 48 48 47 46 45 46 45 43 42 43 47 42 40 41 38 36 31 32 37 38 42 43 49 54 59 67 71 79 78 67 68 72 71 70
18 23 27 29 34 38 39 41 44 49 48 45 45 44 41 41 44 44 43 46 47 48 43 42 46 45 41 40 45 45 49 54 62 66 71 75 78 85 71 75 80 69 62
17 21 27 31 34 35 36 38 41 44 43 44 42 43 40 42 46 46 44 51 54 55 53 52 50 50 51 55 56 56 59 61 67 70 77 81 85 77 78 83 76 67 54
19 23 26 30 33 34 35 41 40 44 45 45 47 44 45 48 50 53 53 57 56 56 58 63 66 66 59 49 63 71 77 72 76 78 80 83 85 87 77 87 76 64 45
24 24 28 30 34 38 38 42 42 45 47 48 49 51 53 55 57 64 65 60 57 65 72 77 78 78 68 73 73 65 87 81 81 89 84 83 86 91 84 89 72 63 45
32 32 31 30 32 32 34 37 34 38 41 44 44 46 48 48 49 49 48 48 48 51 67 78 78 72 81 71 82 92 94 89 93 93 86 86 91 93 85 82 69 60 41
33 30 31 29 30 32 34 34 37 38 35 37 39 39 40 38 38 40 42 44 46 51 55 54 57 65 72 75 72 82 97 96 95 86 94 91 97 90 81 74 66 51 38
31 29 33 34 35 34 33 32 31 32 34 34 33 32 32 32 32 33 35 43 45 45 45 48 48 55 64 70 79 81 93 92 84 89 92 87 82 77 72 70 55 50 32
39 40 38 37 35 37 40 40 39 39 39 38 37 35 32 32 31 31 34 38 44 48 52 60 68 74 80 73 80 80 82 89 80 96 87 84 83 72 74 57 50 40 32
43 41 42 46 46 48 47 47 46 45 45 44 42 36 35 37 36 38 36 40 50 55 60 70 87 91 98 90 96 91 86 85 78 94 86 83 76 73 59 54 40 36 27
49 49 48 52 52 51 50 52 53 53 51 47 43 41 42 42 45 46 49 52 59 64 67 73 91 99 99 99 98 95 91 88 86 92 85 77 77 70 56 45 39 33 26
51 51 53 55 57 57 57 56 55 54 52 51 52 53 53 55 55 56 58 59 63 65 70 79 86 85 87 93 96 97 94 93 92 89 80 80 75 64 54 43 36 28 25
64 63 63 64 65 66 65 65 60 57 58 58 61 62 63 66 64 64 70 69 69 74 71 81 91 96 97 97 96 96 97 96 89 83 79 77 65 57 45 40 31 27 24
74 72 75 75 74 77 74 72 68 66 65 69 70 71 69 69 70 72 75 76 78 75 84 89 93 96 98 99 99 98 94 86 83 81 76 64 56 47 47 41 35 29 27
72 75 75 81 82 79 73 72 72 72 74 77 79 77 73 75 77 81 81 83 85 82 85 87 93 94 92 90 85 83 84 87 83 73 65 62 56 54 49 46 39 34 28
76 73 73 72 70 69 68 67 67 70 78 80 80 79 83 85 87 87 89 86 90 86 86 89 89 88 86 87 87 87 89 87 82 74 70 64 63 59 53 42 35 32 27

GFSGL_prec_cthk_030.txt.gz
RH
11 9 10 13 14 14 17 17 20 23 26 26 31 28 28 28 24 23 26 33 34 37 38 38 37 38 44 49 51 51 48 47 47 48 54 53 52 50 50 51 50 50 47
20 18 16 15 16 17 18 18 19 22 24 28 32 34 30 26 24 23 19 26 34 35 36 36 38 40 45 48 51 49 46 47 49 52 53 55 55 55 53 52 52 54 57
33 32 29 25 23 23 21 20 21 22 25 25 27 29 27 24 22 22 21 19 27 35 36 37 38 40 41 45 47 48 49 48 50 50 54 55 55 55 54 54 55 60 59
41 40 37 35 33 31 30 26 25 25 25 26 25 26 29 28 26 22 22 21 20 25 33 37 36 36 40 42 42 42 44 47 48 50 54 57 59 58 59 57 56 59 59
44 44 43 44 43 39 39 37 34 30 28 27 26 28 31 31 31 29 22 21 21 20 23 30 33 34 34 35 35 38 40 43 46 46 48 54 60 64 64 62 62 62 62
42 39 41 41 44 48 47 43 40 36 35 34 28 29 30 33 35 36 34 24 20 20 20 22 27 29 29 31 33 36 37 39 42 46 47 47 55 61 63 66 66 66 62
39 37 37 38 39 42 45 47 44 41 38 35 34 32 31 33 35 38 39 37 34 27 23 20 22 22 25 27 30 33 35 37 40 45 48 50 51 59 66 68 70 69 66
36 37 39 39 38 40 40 43 47 46 41 41 37 36 35 34 35 37 40 42 40 37 33 27 22 21 23 24 25 29 31 34 36 40 45 53 58 65 69 71 73 73 68
31 33 34 36 38 38 38 37 42 49 48 45 42 40 38 37 41 42 45 48 46 42 41 36 33 31 30 30 29 26 27 33 35 40 47 54 59 63 68 70 73 68 66
35 35 35 34 34 35 38 38 37 44 49 48 41 38 42 43 46 48 52 56 52 49 49 45 42 40 40 37 37 36 37 34 38 42 47 53 57 59 68 76 79 74 71
27 29 33 35 35 33 38 42 40 43 46 45 46 48 45 44 46 49 53 56 51 54 53 50 52 50 47 44 44 44 40 42 42 45 46 52 55 57 62 71 78 77 81
22 24 25 28 34 36 39 41 39 41 44 44 45 47 48 48 47 48 49 50 54 60 54 53 55 60 63 60 52 48 51 56 54 50 51 54 62 67 68 68 77 79 78
17 17 19 22 25 33 40 39 37 38 45 46 46 48 52 55 52 53 53 52 52 54 56 60 63 65 66 68 66 67 64 64 67 63 61 57 62 68 72 79 80 80 84
17 18 18 20 23 27 35 40 43 44 44 46 48 49 50 50 50 49 48 49 48 50 50 57 64 71 71 68 69 71 75 75 71 70 71 70 80 80 79 87 84 83 91
22 22 22 25 29 32 35 37 43 45 46 45 47 50 50 51 53 52 53 54 49 52 59 64 67 71 77 75 72 67 68 67 67 72 76 79 84 88 83 82 91 90 93
28 28 29 30 32 33 36 39 41 46 50 50 50 51 52 48 45 43 44 48 49 46 49 50 49 45 46 49 55 56 59 63 65 76 84 88 88 89 86 93 86 95 95
32 34 33 35 39 41 41 44 47 46 46 46 44 40 38 37 36 36 38 39 40 42 43 41 41 42 44 45 51 52 56 65 74 76 79 86 94 97 98 87 88 93 91
34 35 33 35 38 39 38 40 42 41 40 37 36 36 36 34 32 29 29 31 31 32 37 42 44 47 51 51 52 53 57 66 83 78 82 83 86 80 92 87 93 91 84
36 35 34 32 33 34 36 37 37 36 35 35 34 32 31 31 33 33 33 32 32 30 31 37 40 44 49 55 60 64 70 74 76 88 95 99 91 81 82 89 89 85 80
38 40 42 42 40 42 42 41 41 42 42 40 40 40 39 40 40 40 37 36 37 37 40 43 44 48 50 55 60 68 77 84 90 97 98 98 97 88 91 93 87 84 75
45 44 43 44 44 45 48 48 48 48 49 49 50 49 47 46 47 47 46 46 42 41 44 49 52 55 58 62 69 72 82 97 99 99 99 98 93 90 93 92 85 77 61
53 54 52 50 50 51 52 52 52 52 53 52 53 53 53 54 55 52 51 51 51 52 52 54 56 60 61 66 72 79 85 92 88 91 95 99 98 96 94 85 74 74 61
62 62 62 59 59 59 58 60 59 59 59 59 59 59 60 61 59 56 59 58 57 56 59 64 67 66 68 74 80 79 79 79 84 94 98 98 97 94 86 79 74 65 52
70 68 67 67 67 66 67 68 67 66 67 69 67 69 67 65 62 61 62 63 63 66 68 69 71 74 78 80 81 82 83 86 89 96 97 96 93 84 83 81 68 54 48
77 77 77 74 73 72 70 68 69 70 71 74 76 74 72 70 67 66 66 69 74 75 73 73 75 81 83 86 89 86 89 85 84 90 91 88 83 81 76 66 56 51 48
80 80 81 79 74 71 71 69 66 65 65 68 71 73 67 65 66 71 76 78 78 81 80 81 80 81 88 87 87 84 87 89 87 85 87 88 88 85 76 69 63 56 53

GFSGL_prec_cthk_033.txt.gz
RH
17 15 13 12 11 14 16 17 19 21 22 24 24 27 27 29 30 28 22 25 31 34 35 36 37 36 40 49 52 53 48 43 42 46 51 55 53 51 50 48 48 48 50
14 14 14 13 14 16 18 18 19 18 21 24 25 30 31 30 29 27 22 18 25 31 34 36 36 38 37 43 48 50 50 49 47 44 46 51 56 58 57 56 56 53 52
14 16 16 17 19 18 19 19 19 19 18 20 25 25 24 26 26 25 23 19 18 20 28 33 35 37 36 37 41 46 48 49 47 46 44 44 49 53 57 59 59 57 56
23 23 22 20 21 22 22 24 23 21 21 22 22 26 28 28 27 27 24 22 20 18 20 23 29 32 33 34 34 36 38 40 42 44 44 45 44 47 52 56 58 59 58
29 32 31 29 28 27 27 27 26 26 23 23 22 22 26 28 30 31 31 26 23 21 21 19 20 21 24 28 31 30 31 32 35 38 42 44 47 47 47 54 58 59 62
37 36 38 36 39 40 39 35 32 30 28 27 23 22 25 28 31 34 36 36 35 31 26 23 22 20 20 21 25 29 32 32 31 33 36 39 44 47 47 51 58 62 63
38 42 40 40 41 39 40 42 41 38 36 34 32 27 27 29 32 36 38 40 41 40 39 37 33 30 24 21 22 25 28 31 33 33 33 34 39 45 50 52 56 62 65
35 39 42 41 41 39 40 41 43 45 45 41 38 34 31 30 33 38 42 43 43 43 44 44 43 39 39 37 31 31 33 31 32 36 38 38 41 48 53 56 58 63 68
33 36 37 37 39 38 38 38 41 42 44 48 44 41 38 36 37 42 48 49 49 49 53 53 52 49 48 47 46 44 40 36 36 39 41 43 45 50 54 60 60 65 69
32 32 34 37 41 39 37 37 38 41 43 42 48 48 43 38 41 46 52 54 52 56 58 56 54 54 55 57 58 55 51 46 45 44 45 45 45 49 54 57 63 66 67
36 37 37 36 37 38 39 38 39 40 43 45 43 45 47 47 48 51 54 54 55 58 55 53 53 55 60 61 61 64 58 64 63 60 56 57 56 53 55 63 63 61 65
30 34 34 33 33 34 36 39 41 42 41 45 44 43 46 46 50 52 53 56 57 54 53 54 55 55 55 57 61 59 62 66 67 67 67 63 60 59 60 60 63 66 68
21 21 26 30 29 30 31 33 37 42 46 49 47 45 45 47 49 53 52 53 53 51 49 49 52 55 54 53 54 55 61 72 74 73 68 68 67 72 77 73 70 71 75
17 16 16 18 21 23 23 25 29 34 43 48 45 45 42 44 46 47 48 49 51 52 52 52 55 55 56 55 55 57 58 63 65 65 64 65 68 68 76 86 80 83 87
20 20 20 19 19 21 24 27 30 35 40 45 48 48 47 46 46 47 48 49 49 48 48 47 46 46 45 46 51 57 55 55 55 55 64 71 75 72 72 80 85 89 92
28 27 26 25 25 26 26 31 34 38 46 48 46 49 52 50 49 51 52 50 47 44 42 40 40 42 43 45 47 50 49 49 54 61 68 81 82 76 78 80 94 90 99
35 32 31 32 31 33 34 34 34 37 40 45 48 49 49 49 49 45 44 42 40 39 39 38 37 40 42 44 50 50 50 51 50 56 57 67 72 73 72 75 84 99 94
41 39 37 36 34 38 41 42 45 45 43 42 45 46 45 44 41 38 35 32 29 28 28 30 31 32 33 37 41 44 45 46 51 53 61 67 70 72 84 88 75 98 98
41 42 42 43 48 49 50 48 48 47 46 45 45 43 41 37 33 31 30 31 32 32 34 35 37 37 37 39 39 40 43 44 46 50 54 64 78 79 79 88 99 98 96
44 45 45 43 45 47 47 46 45 45 44 44 42 39 37 35 35 36 37 38 40 40 42 40 41 42 43 44 45 47 50 50 50 57 68 77 90 99 99 99 99 97 95
49 49 46 45 44 44 45 45 45 43 42 41 42 43 43 42 44 45 46 49 50 50 48 47 48 46 48 49 52 53 57 58 57 64 71 73 77 85 88 92 94 98 98
53 53 52 51 50 51 51 52 52 52 52 51 50 50 51 52 51 52 53 54 57 56 54 56 55 52 51 54 56 59 61 61 63 68 72 79 80 81 86 91 95 96 96
59 59 58 56 53 52 54 56 56 55 55 55 56 56 58 59 58 58 59 59 59 59 62 63 61 55 56 59 61 63 64 67 68 70 72 76 82 85 93 96 96 92 85
69 67 64 59 60 59 61 62 62 62 63 64 64 65 64 64 65 65 64 65 66 68 68 65 65 59 61 64 68 69 68 72 73 76 78 83 88 95 94 89 88 87 84
78 72 71 71 69 65 69 67 66 66 68 69 70 69 68 65 63 63 65 65 64 66 70 73 69 67 66 67 71 74 75 78 82 80 78 85 86 82 85 85 83 83 80
80 83 80 72 72 75 73 72 71 71 69 68 67 65 64 62 62 61 62 61 61 62 63 68 71 71 72 77 77 74 75 80 84 84 81 80 87 90 90 88 84 82 76

GFSGL_prec_cthk_036.txt.gz
RH
21 20 22 21 19 17 15 14 14 15 17 19 24 26 28 29 30 31 28 28 32 35 37 36 33 34 36 41 43 45 45 45 45 46 46 48 52 53 52 52 53 52 52
16 17 18 18 18 17 15 16 18 18 19 22 24 25 25 29 31 32 31 28 24 30 32 35 34 33 34 36 38 40 44 44 40 40 41 42 44 47 50 51 53 54 54
15 15 16 17 17 17 16 17 19 20 20 23 25 25 26 29 30 29 27 26 23 19 23 30 32 33 33 34 36 38 38 38 41 42 39 40 41 43 45 49 54 56 59
14 13 15 17 19 19 20 20 20 19 19 19 21 23 24 24 27 27 27 27 26 24 21 21 23 26 30 33 35 35 35 36 37 39 41 42 43 45 48 49 52 57 60
19 16 16 18 19 21 23 25 24 23 22 20 21 23 24 25 28 30 31 29 28 31 30 27 23 21 21 22 27 31 34 35 35 36 37 38 39 42 44 47 49 54 63
25 26 24 22 24 25 25 26 28 27 24 23 20 19 20 22 29 33 35 36 36 36 34 34 33 30 25 24 24 24 25 29 32 34 33 34 36 39 43 44 47 50 55
32 34 31 33 34 37 36 35 32 31 29 27 24 20 21 24 27 31 34 37 40 41 42 43 42 42 43 41 37 34 33 32 33 35 35 35 35 37 42 45 48 53 55
44 45 44 41 44 42 41 40 41 42 42 38 35 31 26 27 30 33 37 39 40 42 45 46 46 48 47 48 50 49 50 47 43 42 38 33 33 36 38 41 47 52 55
42 44 45 43 45 44 41 41 42 43 43 45 45 43 40 36 36 39 41 43 44 44 46 48 50 52 56 59 58 57 55 52 56 60 59 57 52 55 49 51 52 51 50
34 34 38 44 45 40 36 37 39 39 39 42 42 43 45 47 47 45 45 47 47 49 50 52 53 55 61 62 63 66 61 58 64 65 65 68 69 68 69 66 62 56 57
39 34 38 42 41 40 40 39 37 38 39 40 42 44 45 46 48 49 46 47 48 51 50 50 52 53 55 58 59 58 56 61 64 65 65 65 68 69 73 80 85 81 72
41 40 37 37 40 42 43 43 43 42 41 41 41 41 44 47 50 49 52 51 53 54 55 56 57 56 53 52 50 50 53 56 60 64 63 59 62 66 73 83 81 78 80
35 36 37 40 40 41 41 39 41 43 45 44 42 43 44 46 49 46 46 50 53 54 53 53 52 50 51 52 53 51 54 57 59 57 57 55 54 54 55 57 60 73 81
28 28 29 30 32 35 37 36 35 34 34 36 38 41 45 48 51 47 45 45 48 49 50 51 53 54 53 49 47 47 50 52 53 51 55 58 64 64 61 64 70 70 76
23 20 17 17 19 21 26 28 28 27 27 28 31 34 39 45 48 48 51 50 49 50 50 52 51 51 50 48 48 46 48 47 47 49 54 57 57 62 65 64 60 62 62
26 24 21 21 21 23 26 26 27 26 26 30 32 34 38 42 46 50 53 52 52 53 52 50 48 44 42 41 42 43 43 45 48 49 52 48 50 52 58 61 62 66 68
27 25 26 27 28 29 29 28 28 29 32 33 36 38 40 41 51 54 54 53 51 49 45 40 36 32 29 29 32 36 37 37 37 38 40 37 37 44 55 58 75 76 75
32 29 31 34 33 35 37 38 38 40 41 40 43 46 47 49 49 47 45 44 41 37 33 28 27 28 30 32 34 35 36 37 38 40 40 39 42 50 54 56 60 69 80
39 36 36 41 43 38 45 46 47 47 47 46 44 41 42 42 41 41 41 39 36 32 31 31 32 34 36 37 38 39 40 41 41 42 43 44 47 48 47 49 53 63 77
44 42 45 46 47 47 48 51 56 58 56 54 53 53 52 52 49 46 41 37 36 35 35 37 39 41 42 43 43 44 43 45 46 46 47 49 51 52 52 56 64 69 80
38 42 45 47 50 52 53 54 57 57 60 61 61 59 58 53 46 42 41 42 43 43 43 45 48 48 48 49 49 49 50 52 53 51 54 56 55 56 60 65 68 74 83
44 44 46 49 49 51 53 54 56 58 59 59 57 53 50 48 47 47 47 48 48 50 51 52 53 54 53 52 53 54 55 56 60 57 57 59 57 59 62 69 71 72 80
45 45 49 55 56 55 59 60 58 58 58 57 55 52 52 52 53 54 55 55 56 57 57 57 57 58 57 57 58 56 57 60 66 62 59 59 63 64 67 67 70 76 80
54 50 52 55 56 57 59 60 60 61 60 59 58 58 58 60 61 62 61 61 60 61 61 60 60 60 60 60 61 64 64 64 68 68 65 64 68 74 72 70 73 76 75
63 60 59 61 64 63 60 61 63 65 68 69 68 66 64 64 65 64 63 62 61 60 59 61 60 60 63 64 68 69 66 65 70 71 71 71 71 71 72 72 70 74 75
78 79 77 78 73 70 66 64 66 68 67 67 67 66 64 65 62 61 62 62 62 60 58 58 57 61 64 68 71 72 70 70 72 72 75 78 77 76 74 76 76 76 78

GFSGL_prec_cthk_039.txt.gz
RH
27 24 25 24 24 24 22 20 20 20 21 21 23 27 29 29 30 30 31 36 38 37 38 36 35 34 37 39 41 45 46 44 43 42 40 40 41 43 45 48 49 50 52
27 23 22 23 24 23 19 18 17 19 21 19 21 22 25 27 30 31 32 32 34 36 35 36 37 37 34 34 36 38 40 41 41 39 40 40 40 40 42 43 47 51 55
26 23 22 23 21 20 17 16 17 20 22 22 21 21 22 25 27 30 32 31 29 27 30 32 32 35 35 34 34 35 36 37 37 36 36 36 38 39 39 41 44 48 51
24 23 21 20 19 18 17 19 21 21 22 22 21 20 23 24 25 27 29 29 28 27 26 25 25 26 29 31 32 33 34 34 34 34 34 35 35 38 40 43 44 47 50
21 20 17 15 16 17 20 21 22 21 19 19 19 19 20 23 25 26 26 26 29 30 30 29 28 25 23 24 25 26 28 29 32 33 33 34 35 37 39 40 42 45 46
17 16 14 14 16 19 22 23 22 21 20 19 19 19 20 21 24 27 29 29 31 31 31 31 32 33 32 32 31 30 30 30 30 32 34 36 35 34 35 36 39 42 42
22 22 20 19 20 21 24 26 26 26 24 22 21 21 20 21 24 27 30 33 35 37 39 41 42 44 48 50 52 54 53 50 48 46 44 42 41 39 42 44 41 38 42
33 32 31 31 31 33 33 32 32 31 31 29 27 23 20 22 25 28 31 33 34 37 39 42 44 48 52 55 55 53 54 58 63 66 67 65 65 65 66 67 64 61 53
35 39 41 40 40 40 43 44 43 42 41 42 41 41 38 32 32 34 37 38 37 38 39 41 44 47 51 56 55 56 57 59 64 66 67 68 70 71 74 78 76 80 71
31 41 43 51 51 50 48 47 47 45 45 47 47 48 49 49 49 48 45 41 39 39 42 47 50 52 57 60 60 61 57 63 65 62 63 61 65 66 70 74 75 75 76
43 41 48 52 51 49 49 48 44 42 42 42 43 44 44 47 50 51 51 52 49 46 43 45 50 56 59 60 60 59 60 61 59 57 54 51 52 53 60 64 69 71 70
55 42 45 42 48 49 51 47 42 40 41 41 41 41 42 43 45 48 52 53 53 53 52 51 54 57 60 60 61 61 61 57 56 58 59 54 52 50 46 43 50 59 63
49 49 41 40 36 48 49 48 49 46 42 41 41 42 43 44 44 44 50 53 54 53 51 54 55 58 59 58 57 57 59 59 61 56 52 49 48 49 52 51 50 50 47
47 50 50 48 43 43 48 50 48 46 46 49 45 44 43 45 47 49 49 54 59 60 57 54 54 55 54 52 53 53 52 53 51 47 43 41 44 46 46 49 47 51 48
36 37 37 39 39 39 39 40 42 45 45 44 44 46 46 47 47 48 48 54 57 59 60 63 59 55 55 52 51 50 48 44 41 40 41 43 42 40 38 38 38 41 43
25 25 26 27 28 28 26 26 29 32 36 41 41 41 40 41 42 44 47 50 53 58 58 60 59 54 52 50 46 42 36 32 34 35 36 36 36 36 36 37 39 41 45
20 22 24 25 25 25 24 23 25 27 31 33 33 34 34 32 39 40 45 48 51 54 54 55 53 49 43 36 29 28 30 32 33 34 36 36 37 38 40 40 40 40 38
27 26 26 29 30 29 29 31 32 33 34 36 36 35 36 41 40 44 45 46 48 47 45 43 39 35 30 30 32 33 34 35 36 37 38 39 42 42 44 47 46 44 42
34 32 32 32 35 32 33 35 38 39 44 44 44 43 44 47 48 48 47 45 43 41 38 34 33 34 35 36 36 36 37 39 39 40 41 44 46 46 47 49 51 52 49
37 36 36 36 36 39 45 46 52 54 52 49 45 44 49 48 48 49 50 50 48 46 42 42 41 41 41 41 42 43 44 44 43 44 47 49 51 52 50 51 54 56 54
39 36 34 35 37 40 44 50 58 60 59 53 62 61 61 60 58 56 56 54 48 45 44 44 45 44 45 46 47 48 48 47 48 49 51 53 55 55 52 57 59 59 62
42 40 36 37 38 39 41 43 53 55 56 61 64 61 63 64 61 56 51 49 48 47 47 48 48 49 49 51 51 51 51 53 54 55 55 57 58 57 59 62 66 65 66
48 43 41 43 44 43 44 48 49 52 54 57 58 58 57 55 53 52 52 51 50 50 50 51 51 52 53 54 55 56 57 58 60 59 60 61 62 66 66 65 68 70 70
54 51 50 52 51 51 51 52 56 57 58 58 59 60 58 56 55 54 54 54 54 53 52 53 52 52 53 54 56 59 60 61 63 65 68 66 68 73 75 76 72 71 71
49 52 52 51 54 54 58 60 69 68 66 63 62 60 59 58 57 57 56 57 57 56 54 53 51 52 54 57 59 60 59 63 68 69 73 74 76 79 83 79 77 76 74
56 54 54 51 50 60 64 68 70 71 71 68 66 64 62 59 57 56 57 56 55 53 53 54 53 53 53 53 55 60 63 64 69 70 74 75 77 82 82 81 79 82 78

GFSGL_prec_cthk_042.txt.gz
RH
27 27 27 26 25 26 25 27 27 27 26 24 24 25 27 30 30 32 34 36 37 36 35 36 37 38 41 43 43 42 42 41 40 37 37 37 36 37 37 39 42 45 49
26 28 28 26 26 25 25 26 28 25 23 21 21 22 26 28 29 29 30 34 36 36 34 34 35 35 33 34 36 37 37 38 38 37 35 36 36 38 38 39 42 44 48
31 29 28 27 24 24 25 25 24 23 19 19 19 18 20 23 26 29 30 30 31 32 34 34 34 34 33 33 33 32 31 30 31 31 31 32 33 35 37 40 42 42 44
29 31 27 25 24 25 24 23 22 22 21 19 18 17 16 18 22 24 27 27 27 26 25 26 30 30 31 31 31 31 31 31 32 32 33 34 36 37 38 37 38 43 45
25 27 25 25 26 24 23 21 20 22 21 20 20 18 18 19 19 21 21 23 25 26 25 25 25 23 22 24 26 25 27 29 31 31 32 33 31 31 31 32 35 35 36
22 20 22 24 24 21 20 18 19 22 23 22 20 18 17 17 18 20 23 23 24 26 26 26 27 27 28 29 30 32 34 36 39 43 42 42 44 47 51 49 52 53 48
23 25 22 20 19 17 16 17 20 22 21 21 20 18 17 17 19 21 23 26 27 28 29 32 34 35 38 42 45 47 49 53 54 56 54 56 57 63 63 65 67 64 61
24 19 17 16 15 15 17 20 23 23 22 23 23 21 20 20 20 22 25 28 29 31 33 36 38 41 43 46 48 48 49 50 53 58 60 60 63 64 63 62 63 62 58
28 24 22 21 20 22 22 24 26 28 28 28 28 26 25 23 24 26 29 31 31 33 34 36 38 40 44 47 48 53 59 61 64 63 63 62 62 61 64 64 61 60 55
29 31 32 33 34 33 36 40 42 42 41 42 44 43 45 44 42 40 40 40 39 38 40 41 43 44 50 55 56 60 61 62 61 63 62 62 61 60 63 64 62 61 57
40 36 41 45 44 44 48 50 51 52 51 50 52 54 55 54 55 55 54 51 50 50 49 47 46 47 50 54 56 58 61 63 63 63 61 62 57 56 53 54 51 56 61
46 40 43 49 51 50 52 57 57 55 52 50 48 48 47 45 44 46 49 50 51 54 55 54 54 57 56 56 57 58 61 63 64 65 62 57 54 50 43 41 40 42 43
51 54 44 44 51 52 54 53 51 51 47 43 42 42 41 42 43 45 46 46 48 49 53 57 56 58 60 61 64 65 64 66 63 62 60 53 47 42 39 41 43 44 41
57 56 57 51 44 48 52 51 52 54 51 48 47 45 45 44 43 44 46 50 51 52 50 54 62 64 64 65 65 65 66 65 58 53 51 46 41 38 36 34 33 32 32
59 59 56 59 55 57 50 47 49 52 53 51 49 51 48 46 45 48 47 48 50 55 60 61 59 59 63 64 66 66 62 57 54 51 46 37 33 34 32 32 31 32 34
55 52 52 53 53 51 48 49 46 46 48 49 50 49 48 48 52 53 52 54 60 61 58 58 57 58 58 59 59 56 54 50 41 36 34 33 33 33 33 32 33 35 35
38 37 39 38 35 34 37 40 39 35 36 39 40 41 44 50 51 48 46 50 56 54 50 49 51 53 54 53 50 44 35 33 32 32 35 35 36 36 35 35 36 37 37
34 27 25 24 26 29 32 33 34 34 35 39 39 43 45 43 42 40 43 41 44 45 46 46 46 43 43 40 36 33 33 33 36 37 37 38 38 38 38 38 38 39 40
40 37 33 30 31 35 36 36 36 35 32 31 31 34 38 41 42 44 45 47 47 47 46 45 43 40 36 35 36 38 40 40 39 39 40 41 40 41 41 41 42 42 43
43 47 47 42 42 43 45 44 42 41 40 39 37 38 43 41 42 45 46 45 45 46 46 46 45 43 44 43 42 42 43 44 43 42 42 42 44 45 46 45 46 46 48
44 47 47 47 46 49 52 51 51 50 48 47 49 52 54 55 56 54 56 52 51 52 52 50 47 46 46 47 46 46 46 46 46 45 46 47 48 50 52 51 51 52 53
47 46 44 40 40 45 47 47 44 45 48 51 51 54 55 54 60 61 58 58 57 54 49 47 47 47 47 47 48 48 48 48 49 50 51 53 55 55 58 58 57 56 59
51 48 47 45 43 47 50 50 49 50 51 50 51 54 56 56 58 56 55 54 52 50 50 50 49 49 49 48 48 48 49 51 53 54 55 58 61 64 64 65 64 65 66
57 50 49 48 50 53 57 56 57 57 55 53 53 54 56 56 56 55 54 53 51 51 51 51 50 49 48 47 48 49 50 50 50 55 59 64 67 69 71 72 75 75 71
67 63 54 61 58 60 66 62 60 59 61 57 55 57 61 61 61 57 56 56 55 53 50 49 48 47 47 48 48 49 49 53 57 60 62 66 67 70 71 74 81 87 86
77 69 73 69 70 72 67 63 63 63 63 66 67 62 63 60 59 59 59 57 55 54 54 54 54 53 52 52 52 52 52 52 52 59 64 65 70 73 75 76 81 83 84

GFSGL_prec_cthk_045.txt.gz
RH
31 33 33 30 28 28 27 25 24 26 26 25 23 23 25 25 27 30 32 34 36 37 37 37 37 40 39 38 37 38 38 37 37 36 34 32 32 33 34 36 38 40 42
28 29 29 29 28 27 26 26 26 25 27 26 25 21 23 23 24 25 29 32 35 35 34 34 35 34 35 37 37 35 34 33 33 32 31 31 32 34 35 35 37 39 42
28 29 29 29 27 26 25 25 26 27 27 25 23 20 20 22 24 25 25 27 31 33 32 32 33 33 32 32 32 32 32 32 32 31 31 33 34 34 34 34 35 36 38
29 28 27 27 26 26 25 24 25 26 26 22 19 19 19 19 20 22 25 25 24 25 27 29 30 31 31 31 31 30 30 29 29 30 30 34 33 33 32 32 36 38 38
29 28 27 27 27 28 26 23 25 25 23 21 20 18 18 17 16 17 19 20 21 21 21 21 22 23 24 25 26 28 31 31 32 34 35 39 45 47 49 50 50 52 52
32 26 29 31 27 25 25 25 25 23 20 22 22 22 20 16 14 14 16 18 19 20 21 21 23 22 21 23 26 28 31 33 37 41 44 46 49 53 58 59 58 55 52
29 27 24 27 25 24 24 23 21 20 20 21 23 23 20 18 16 17 18 21 21 22 23 23 24 27 28 31 33 35 40 44 48 51 50 52 53 56 57 57 59 57 54
25 25 22 22 23 23 21 20 18 18 19 22 23 21 20 18 18 18 20 23 23 24 25 27 29 31 33 35 37 39 40 40 44 45 48 54 57 60 64 65 64 60 51
25 26 25 23 20 19 19 17 15 17 21 22 22 22 20 19 19 18 19 22 24 26 28 30 31 33 35 36 37 39 42 44 48 53 57 59 61 65 70 68 62 59 50
23 25 22 18 18 15 15 15 16 20 22 24 24 25 25 23 21 20 21 23 26 29 32 33 34 35 38 41 40 43 47 53 58 58 59 60 62 66 72 67 62 60 52
27 32 30 24 19 19 18 20 23 25 28 30 32 33 34 37 40 42 44 44 43 45 48 48 48 47 49 49 49 50 49 53 55 57 57 61 63 69 66 62 58 56 50
30 38 40 36 33 33 33 35 38 42 44 45 45 45 48 53 55 55 54 52 52 51 52 54 54 54 56 57 55 55 56 56 57 65 60 63 64 67 57 54 49 46 43
39 37 37 39 41 43 43 43 45 48 50 54 55 54 53 52 50 49 47 46 46 47 48 49 50 50 51 53 56 63 64 65 65 59 64 67 66 53 50 47 42 34 32
45 46 40 38 41 47 48 51 51 51 55 56 51 51 49 45 44 44 44 44 44 46 50 51 53 53 53 58 60 61 62 67 70 64 64 61 54 50 46 34 31 32 31
55 52 48 53 46 46 54 54 54 53 57 56 57 54 51 47 48 49 47 45 44 46 50 52 52 54 60 63 65 64 61 59 58 58 56 52 47 36 31 32 33 33 35
61 62 61 62 62 57 53 54 56 57 58 53 58 57 55 52 52 49 49 48 49 49 50 53 57 59 61 63 62 59 58 55 53 52 46 36 32 31 33 35 35 36 35
65 70 67 66 83 65 61 54 57 52 53 60 61 58 56 49 48 50 50 49 50 50 50 60 60 57 58 55 52 50 49 47 44 34 32 31 33 36 36 38 39 38 36
68 64 67 69 72 63 56 52 50 50 53 52 51 49 46 42 39 43 43 44 45 47 49 50 48 46 44 45 44 41 40 35 32 33 35 38 38 39 41 41 40 36 35
61 57 59 58 52 43 39 38 37 39 42 45 48 50 49 49 45 45 47 44 43 44 44 44 47 47 45 45 42 37 35 37 39 40 41 41 43 43 43 41 40 39 39
51 50 48 43 40 38 36 35 37 40 41 43 42 41 41 40 39 40 43 44 45 45 47 53 52 46 44 42 41 41 42 43 44 44 44 45 45 45 43 43 45 44 46
52 52 52 49 47 47 47 46 45 46 45 48 48 49 47 47 47 47 50 51 51 49 50 50 51 50 49 47 45 44 45 45 45 46 46 46 46 45 46 48 50 52 54
58 56 56 55 56 55 53 54 52 54 54 54 57 58 58 55 59 56 56 61 58 57 57 55 53 52 48 47 46 45 45 45 46 46 46 46 46 47 50 52 54 59 61
66 63 59 53 48 50 49 51 50 49 49 54 55 55 56 58 59 55 62 58 58 59 56 52 51 48 46 45 45 44 44 44 43 42 42 43 45 50 53 57 60 63 64
71 69 65 63 58 54 53 50 53 51 50 51 54 56 57 58 62 61 56 54 53 52 50 48 47 47 46 44 42 41 40 39 40 43 47 49 52 56 56 60 63 64 68
71 73 73 65 60 59 60 59 54 53 55 57 58 57 56 58 59 59 57 54 53 49 47 47 46 44 43 43 42 41 41 44 46 47 49 54 59 59 62 65 67 69 71
80 76 78 77 71 68 70 70 67 62 62 63 61 60 62 62 65 64 60 57 59 57 52 49 48 49 49 46 45 43 42 41 41 44 46 48 52 58 62 62 66 70 76

GFSGL_prec_cthk_048.txt.gz
RH
30 29 28 27 28 30 32 28 27 27 25 22 22 21 24 28 28 28 32 39 38 40 41 39 40 39 39 43 40 37 37 37 37 36 35 35 31 30 32 34 35 35 38
25 25 24 24 27 32 29 28 27 25 24 22 23 21 21 24 27 28 29 33 35 36 37 37 37 39 35 34 37 37 35 34 33 33 33 34 35 36 33 32 35 38 41
27 27 28 29 29 28 26 27 27 25 24 23 24 24 20 21 24 24 25 28 33 35 35 33 34 35 35 35 37 37 40 37 36 35 35 35 35 35 36 38 37 37 37
31 28 28 27 28 26 25 26 26 25 25 23 24 25 21 18 22 25 26 23 27 30 32 32 32 32 31 32 32 33 33 33 33 33 36 38 39 40 41 41 45 52 53
37 33 25 22 23 25 26 25 24 24 23 22 24 24 21 21 21 22 24 23 24 23 26 27 27 28 28 27 30 31 32 35 37 38 40 44 47 51 53 57 58 58 56
37 33 32 24 24 24 24 23 24 23 23 23 22 20 20 21 19 17 17 20 22 23 23 21 19 20 19 20 21 26 28 29 31 35 40 46 51 57 60 59 57 59 56
38 37 34 29 26 23 23 24 24 23 22 23 21 19 18 19 17 15 14 16 19 19 20 22 22 24 23 24 23 24 26 29 35 38 43 50 51 54 53 53 58 63 64
47 38 33 30 30 30 28 25 24 23 23 22 19 18 19 19 18 16 16 16 18 20 24 25 23 23 27 31 34 35 37 38 39 40 42 45 47 51 52 56 59 58 54
48 39 31 27 31 29 29 26 24 23 22 19 17 17 20 18 16 15 17 20 21 21 21 23 25 26 27 28 30 31 32 35 41 42 43 45 51 55 59 58 62 64 51
49 39 29 24 24 22 25 26 23 21 19 17 16 18 19 19 18 16 18 20 24 25 23 23 24 25 27 29 29 30 31 35 42 46 49 52 57 60 61 63 66 68 61
52 51 36 28 27 25 22 19 20 20 19 15 19 20 21 20 19 18 18 20 22 26 28 29 31 33 33 37 41 45 48 54 55 57 59 59 57 56 61 68 70 69 59
51 48 31 31 29 28 26 24 21 18 15 17 19 23 27 26 26 26 27 30 32 36 41 48 53 54 54 53 53 54 56 58 57 57 57 58 63 64 68 70 69 59 52
56 47 36 33 30 23 18 19 19 17 22 24 28 32 35 37 35 36 41 45 47 47 46 48 47 47 47 47 48 49 52 54 54 61 66 65 63 63 63 62 54 47 38
59 49 44 46 42 38 33 31 31 30 32 36 41 44 48 51 51 54 50 48 47 46 46 47 49 51 52 51 52 54 58 63 64 65 68 65 61 60 58 54 45 37 36
58 52 44 48 50 51 53 49 47 49 50 51 56 61 63 61 57 53 52 52 49 47 48 47 47 47 49 53 54 57 62 64 66 67 66 59 58 57 53 41 37 36 37
59 59 48 54 55 59 63 68 71 66 63 63 63 65 67 62 60 56 53 52 49 47 47 47 48 50 51 54 57 59 60 61 57 54 55 54 52 46 38 37 37 39 39
66 60 61 68 63 61 61 64 68 79 81 77 69 65 67 66 64 58 57 57 55 53 50 51 51 54 53 53 55 54 53 49 48 49 48 46 38 37 38 39 41 42 43
62 54 81 81 71 65 70 67 61 57 88 92 82 75 70 67 65 63 60 59 57 50 44 44 46 45 47 49 48 47 46 48 46 44 39 38 39 41 43 43 42 42 42
76 80 70 61 61 64 63 59 61 64 83 80 76 71 67 66 62 58 58 58 59 55 49 47 46 43 40 42 44 46 47 45 42 37 37 42 42 43 43 43 43 43 42
70 67 65 63 65 71 63 68 59 55 60 62 64 63 57 56 56 56 57 55 53 47 44 42 44 44 45 47 50 48 46 44 42 42 43 44 44 44 43 44 44 44 44
70 70 66 62 48 52 55 61 58 55 51 50 49 42 42 45 48 48 45 46 45 43 43 45 46 47 49 52 51 49 47 47 46 45 45 45 44 44 44 44 44 47 48
62 61 60 63 65 64 75 71 64 63 62 60 56 51 49 49 48 49 50 49 49 49 51 54 52 55 57 57 53 52 50 47 45 44 44 42 42 41 41 41 42 45 49
68 67 67 67 68 71 72 73 78 74 70 64 62 61 58 55 54 53 50 57 57 54 57 63 59 57 57 54 49 47 45 43 42 41 40 39 40 42 42 43 47 51 53
65 74 71 70 66 62 64 68 69 70 70 65 62 63 62 59 54 54 55 55 54 52 57 57 54 49 46 44 42 42 40 40 39 38 37 39 43 43 45 49 53 55 57
60 74 71 78 77 68 61 59 60 62 62 62 64 64 60 59 58 56 54 54 53 52 50 48 48 47 46 45 44 42 42 41 39 39 39 45 44 43 46 52 56 56 62
73 67 68 69 75 70 74 70 67 66 69 68 66 65 64 63 61 60 60 61 56 54 52 51 49 48 46 46 45 44 42 39 37 36 37 45 47 47 47 48 51 58 61

GFSGL_prec_cthk_051.txt.gz
RH
31 31 28 25 28 25 29 30 32 31 34 30 31 26 25 26 28 33 31 42 40 41 42 43 41 38 40 42 42 40 40 39 37 35 36 34 35 34 33 35 38 40 42
28 30 29 27 28 28 25 28 28 27 28 30 28 27 24 24 28 28 28 33 38 40 42 38 39 41 36 35 37 39 39 38 36 31 31 33 34 37 38 38 37 38 37
29 30 31 30 27 26 23 24 26 24 22 26 27 26 24 23 24 28 26 27 33 36 37 36 34 36 39 38 37 36 40 38 37 35 35 37 39 40 38 38 44 51 56
34 30 32 28 25 23 23 21 23 21 20 20 22 24 25 26 23 23 28 25 25 29 34 35 32 31 31 33 32 32 31 30 30 30 35 37 38 41 43 50 60 61 60
34 33 29 23 24 23 23 23 22 22 20 19 20 20 22 26 23 22 23 25 24 25 29 29 28 28 29 29 31 34 34 35 38 38 38 40 42 45 50 51 55 57 57
34 33 31 26 24 24 23 23 22 23 21 20 20 19 21 23 23 22 21 22 23 22 23 23 23 25 26 26 25 24 25 29 28 30 32 36 41 49 53 53 49 45 48
39 36 36 33 30 23 21 22 21 22 23 21 20 20 19 19 19 21 20 20 20 19 20 21 21 24 22 21 19 22 24 25 27 30 34 39 40 42 41 42 47 52 57
48 43 40 37 31 28 25 21 21 21 22 21 20 19 19 16 14 18 19 19 18 16 16 17 17 17 20 24 27 29 31 32 32 36 39 41 41 43 45 47 51 54 59
53 48 44 41 37 32 29 25 21 21 21 21 20 19 19 15 14 17 19 19 17 15 16 16 18 20 20 22 25 28 29 31 34 34 35 37 41 46 52 55 52 51 55
54 48 49 46 41 33 27 29 28 26 23 21 19 19 18 15 16 18 19 19 20 21 21 21 21 23 24 25 25 26 28 30 32 34 39 49 54 56 58 61 63 60 64
50 55 57 51 45 35 29 32 32 30 32 26 27 24 20 16 16 17 18 17 19 24 24 24 26 27 27 28 28 29 33 41 48 54 56 59 62 64 64 64 65 66 68
49 56 57 56 53 45 31 33 33 34 34 32 28 27 23 19 18 19 17 15 18 20 25 30 31 32 34 37 41 49 54 54 54 52 53 57 55 57 66 65 69 66 63
45 49 56 58 55 45 37 34 36 32 30 32 32 29 26 27 25 24 23 23 25 28 34 38 36 40 45 49 50 50 50 50 52 55 57 57 62 65 64 63 62 57 53
44 49 57 59 54 46 42 39 38 33 31 31 30 27 28 29 36 39 34 29 29 29 32 37 41 46 48 51 51 51 51 54 57 55 56 61 64 62 57 55 54 52 46
45 47 59 65 55 50 45 40 32 35 33 30 31 31 33 39 43 44 42 38 39 40 45 48 49 51 52 52 53 53 52 56 58 59 59 58 54 52 55 53 49 43 41
51 51 58 62 62 55 44 40 35 29 30 31 32 35 43 46 50 56 60 61 58 55 54 54 54 54 52 53 53 55 56 57 60 57 53 50 50 51 50 48 42 39 42
59 59 63 68 61 62 51 51 46 42 42 42 43 45 49 58 64 70 69 66 64 61 59 57 54 52 52 55 54 53 54 55 54 50 49 49 48 48 44 42 43 44 44
61 61 62 71 62 65 60 58 59 60 55 56 53 55 59 66 70 69 72 76 72 64 61 58 57 55 53 52 50 53 55 52 47 44 47 51 49 46 43 44 46 45 43
66 70 71 74 70 74 69 61 59 60 62 64 66 70 74 76 74 81 76 74 69 67 67 66 59 56 56 54 50 52 48 45 46 49 48 48 44 42 43 45 44 44 43
72 77 71 73 69 70 65 62 73 64 59 58 57 61 64 81 82 88 82 81 77 79 70 65 60 57 50 47 46 46 47 47 52 51 48 46 46 46 46 46 45 45 44
83 85 83 77 73 71 71 60 59 61 66 66 60 55 53 62 72 76 84 81 68 63 60 59 51 46 48 49 48 48 50 53 52 50 49 48 48 47 46 46 46 45 47
91 88 90 84 79 70 70 70 63 53 59 41 49 50 58 60 66 71 67 62 58 58 54 54 54 54 55 55 52 54 55 54 52 51 50 49 46 45 45 43 42 42 43
91 93 85 79 81 80 73 66 57 55 56 48 50 62 60 62 64 66 66 59 58 58 58 57 59 61 61 61 61 57 52 50 45 42 41 41 42 42 43 42 43 44 44
81 86 82 78 79 79 81 79 76 75 67 66 73 70 68 70 68 69 71 68 67 66 66 68 66 62 59 56 55 49 45 41 38 37 36 37 42 42 42 41 41 41 45
82 85 86 80 75 72 71 78 86 88 89 82 79 76 78 78 74 77 79 74 72 71 70 63 57 55 54 50 48 46 45 43 41 40 39 38 43 43 47 47 47 44 46
81 77 75 77 80 73 69 68 73 75 78 82 78 79 76 78 76 77 74 71 70 64 64 60 56 55 53 52 50 48 46 43 41 40 38 41 44 46 44 42 46 48 45

GFSGL_prec_cthk_054.txt.gz
RH
33 28 23 18 18 19 23 23 25 34 36 38 40 31 27 24 27 29 30 39 39 37 37 39 38 34 37 39 40 38 37 39 37 34 34 33 36 35 35 39 40 41 44
30 32 27 25 20 18 19 22 24 26 30 28 30 29 25 22 23 23 24 31 39 37 36 37 40 35 31 33 36 37 40 39 37 33 30 30 35 37 40 41 43 52 58
30 33 32 28 26 22 20 20 23 22 23 24 24 22 22 20 20 21 23 23 29 33 35 32 31 33 35 35 32 32 32 34 36 35 32 33 35 39 38 41 51 54 56
39 31 32 28 26 25 25 22 22 21 20 21 21 20 20 19 19 20 22 23 23 26 29 30 29 28 29 32 32 32 32 30 30 30 29 33 37 36 41 47 50 53 50
47 35 27 27 26 27 27 25 21 20 19 19 19 20 19 19 20 21 20 22 22 22 23 26 28 28 27 26 28 28 28 30 31 31 35 37 34 32 38 41 42 42 41
48 36 32 30 28 28 27 27 24 20 19 19 19 18 19 18 19 22 20 20 22 23 22 21 24 25 27 27 26 26 25 26 25 27 27 29 30 37 38 39 39 38 38
52 46 34 33 31 26 26 27 27 24 21 18 18 18 18 18 19 21 21 22 22 20 22 21 21 21 22 22 22 22 22 21 23 24 27 30 34 37 38 38 40 44 48
53 51 38 35 34 34 28 25 25 26 23 19 17 18 18 18 18 21 21 22 23 21 19 19 19 19 19 24 25 22 24 26 28 30 34 35 36 37 38 42 48 52 54
52 50 42 33 35 35 31 27 24 24 22 20 18 18 18 18 18 20 21 21 23 20 17 16 17 18 16 16 20 24 27 30 32 31 32 31 32 38 45 53 59 62 60
47 50 52 48 43 40 37 33 29 26 20 19 19 18 18 18 18 20 19 20 22 21 17 14 14 15 17 20 22 24 25 25 25 26 28 31 41 53 60 60 58 60 60
44 54 58 55 51 48 49 43 36 34 32 27 23 22 21 19 18 18 18 19 22 21 19 18 18 19 21 24 26 27 28 30 31 37 47 54 57 55 59 59 57 60 60
49 50 54 56 56 57 54 52 42 37 36 36 34 32 30 25 21 19 18 20 22 23 21 24 24 24 26 28 30 31 33 39 52 56 54 52 53 56 56 57 61 60 59
49 47 46 54 56 59 59 57 52 40 40 38 37 35 33 31 27 24 21 22 24 23 22 25 24 26 29 32 33 36 44 52 52 51 49 51 55 54 57 58 58 54 52
51 46 46 48 53 56 62 60 55 46 38 41 38 36 33 34 31 27 24 23 22 22 22 23 26 28 29 32 35 39 48 51 51 51 53 56 57 58 61 55 50 52 49
47 49 48 48 49 55 60 65 56 49 41 35 35 32 31 27 25 27 27 24 27 31 30 31 30 31 35 40 46 52 53 53 54 54 56 56 58 59 53 51 49 47 44
43 50 50 48 48 50 61 64 59 49 39 35 33 36 31 27 24 26 28 32 36 40 42 40 34 37 44 53 55 56 55 55 57 58 58 59 57 54 52 49 45 43 39
49 54 55 51 50 50 59 60 59 50 38 34 30 31 29 25 23 26 35 44 50 51 52 56 58 61 63 61 59 57 56 60 58 55 56 57 59 55 51 45 44 41 39
48 58 60 56 54 56 60 62 59 55 43 39 35 32 29 29 30 33 42 54 64 70 72 71 68 63 65 64 62 64 63 61 58 59 54 51 48 48 48 48 47 43 41
54 58 64 64 62 66 69 65 66 65 61 48 50 49 49 48 50 52 62 68 70 78 76 66 65 70 67 67 70 68 67 62 54 56 49 48 46 54 50 47 44 43 43
62 58 63 70 72 79 79 71 73 72 70 62 63 64 62 59 58 64 70 76 85 94 93 75 70 78 74 74 71 69 68 59 53 51 48 49 52 53 50 50 48 47 47
73 70 67 70 76 82 92 80 79 72 75 65 63 68 63 65 63 63 62 69 73 66 88 99 98 84 81 71 67 65 57 52 52 52 51 54 53 54 54 53 54 51 48
85 81 75 71 74 75 79 71 69 70 65 59 61 72 65 66 63 56 56 61 63 67 78 88 84 73 64 62 60 57 56 55 54 57 58 56 54 52 51 48 48 43 42
85 87 89 86 82 84 79 77 79 78 74 65 70 68 62 59 58 58 59 72 77 81 76 75 71 67 59 53 53 55 59 55 57 59 57 50 47 46 46 46 41 41 44
90 90 90 93 95 92 89 86 82 79 79 77 74 68 71 57 60 61 60 64 68 69 70 70 68 65 57 59 67 66 60 57 54 51 47 42 45 45 45 42 46 46 46
81 84 87 87 85 89 88 88 87 91 85 83 87 79 68 66 69 67 64 67 73 75 75 71 69 71 68 64 64 60 55 52 48 45 43 42 46 48 48 48 47 46 50
88 84 84 82 84 85 93 98 97 96 91 84 81 79 76 77 76 74 73 77 78 77 78 77 76 78 70 69 63 56 53 51 48 47 47 46 47 47 49 47 44 46 47

GFSGL_prec_cthk_057.txt.gz
RH
30 20 16 19 20 21 25 27 27 28 33 32 32 34 31 28 22 23 30 32 38 37 37 31 33 32 35 37 36 36 35 35 32 33 33 33 37 37 39 41 46 51 60
33 31 23 17 17 18 20 24 24 25 29 35 33 30 29 26 23 20 21 26 33 36 37 36 36 37 34 36 38 36 35 37 35 33 32 32 34 35 39 41 47 54 57
31 33 32 25 18 16 17 18 21 21 22 30 33 29 25 23 20 17 18 20 25 30 34 37 32 36 35 33 34 35 36 36 34 31 30 29 29 36 38 41 49 51 50
45 31 29 30 25 19 18 16 17 19 19 23 26 25 24 20 19 18 17 17 20 25 26 29 31 30 32 33 33 33 31 31 30 29 27 27 31 29 32 40 39 36 35
53 48 33 26 30 27 23 19 19 19 18 18 18 21 21 20 18 18 19 17 17 20 20 23 25 27 26 27 30 31 31 30 28 29 29 28 28 28 29 35 36 36 38
58 53 44 30 25 28 26 23 22 20 20 18 18 18 20 19 18 18 21 21 18 17 18 19 18 22 26 27 26 26 25 25 24 25 25 25 24 27 32 38 37 38 41
59 59 53 39 27 24 26 26 24 24 23 20 19 18 17 18 17 16 19 22 21 20 18 18 18 18 19 21 22 24 24 24 24 22 24 24 29 33 36 36 38 44 50
60 58 55 50 32 26 25 24 26 26 24 23 22 20 17 16 16 15 17 22 22 23 22 19 18 17 17 19 18 20 21 22 22 25 27 29 32 35 35 35 42 50 57
74 59 56 50 39 31 28 24 22 24 24 24 24 24 19 16 16 16 18 21 24 22 24 23 19 17 15 18 19 17 19 18 22 26 28 32 33 32 33 46 58 56 54
59 67 61 57 45 34 33 33 29 25 23 24 23 22 21 18 16 17 18 21 23 20 22 22 21 17 16 16 16 16 18 20 23 26 29 31 32 39 53 58 55 59 58
62 66 64 60 52 45 38 39 38 34 29 24 23 22 21 19 19 19 20 22 22 20 21 20 20 19 17 17 17 18 21 26 30 31 32 38 48 55 55 53 58 60 60
59 66 69 60 59 54 50 47 46 42 38 31 28 25 21 20 19 20 22 23 21 22 19 19 20 20 20 21 21 25 29 32 34 33 38 50 56 53 53 54 57 59 60
61 68 65 61 58 59 56 55 52 51 47 41 36 29 26 24 23 22 21 21 22 22 22 23 24 26 25 26 26 27 30 31 34 38 50 54 54 52 53 58 58 60 57
49 52 60 59 57 58 57 57 57 54 54 49 43 35 29 30 30 25 24 26 26 27 29 30 29 32 31 30 29 28 28 30 36 48 54 58 56 56 59 60 57 56 56
39 41 49 54 54 56 55 56 55 54 53 50 46 41 34 29 25 25 24 25 28 26 31 30 28 29 29 28 27 28 30 36 46 52 56 58 58 59 60 57 55 55 54
35 40 46 50 53 51 53 50 50 52 55 55 52 47 37 32 31 30 29 27 26 27 32 29 31 30 29 27 28 30 36 47 56 61 60 58 61 64 57 56 50 53 51
33 39 46 50 53 51 52 50 49 51 55 60 60 53 40 33 35 35 32 34 28 36 36 35 39 45 47 46 44 44 53 66 67 63 61 59 60 58 58 52 46 46 44
39 41 45 50 53 54 51 52 49 47 51 60 62 60 48 38 35 35 38 36 36 40 41 47 57 65 68 68 71 72 75 74 68 66 63 64 63 61 54 47 51 51 47
47 46 53 54 53 56 55 55 51 48 50 64 66 63 59 48 40 30 30 36 39 42 49 58 68 72 71 70 83 97 91 80 73 68 71 73 70 61 51 48 49 53 51
48 49 54 56 54 60 65 62 54 57 59 67 72 69 69 57 52 45 44 50 51 48 52 56 63 68 75 66 81 90 94 91 84 79 80 75 65 58 53 47 49 49 49
54 50 49 57 58 50 66 73 73 67 69 71 79 78 80 74 65 61 60 59 63 69 62 67 65 66 70 69 63 69 80 91 87 82 77 66 58 56 52 50 50 52 51
63 57 58 60 61 61 60 70 81 90 83 83 86 80 80 82 76 72 74 78 76 74 72 66 62 62 64 61 66 67 73 81 81 76 68 59 59 59 56 54 51 49 45
78 76 81 76 73 73 75 79 81 85 76 97 89 85 82 83 83 76 73 72 71 67 68 70 68 70 73 76 73 72 76 82 80 70 64 60 59 58 59 58 50 44 40
89 89 84 82 86 85 83 87 91 94 87 76 90 91 91 87 80 81 74 73 68 70 71 73 73 78 77 81 79 76 74 72 73 73 70 62 56 52 50 48 48 49 48
92 95 92 91 99 92 89 92 93 97 95 92 92 90 92 88 85 85 80 76 76 76 80 78 78 75 79 84 80 76 76 78 74 70 61 51 52 52 54 55 54 52 53
96 94 95 92 90 91 96 99 99 99 99 98 99 98 93 94 93 89 83 77 78 78 86 83 80 81 87 85 84 87 83 77 66 59 55 52 54 57 59 60 59 55 53

GFSGL_prec_cthk_060.txt.gz
RH
33 29 25 23 26 27 30 33 35 37 40 34 34 34 34 33 32 28 30 33 33 33 29 28 25 29 34 37 38 39 38 37 37 36 34 34 35 36 39 42 47 48 55
35 34 31 23 22 25 25 29 33 34 37 36 34 33 32 30 28 24 22 28 31 33 33 30 27 29 30 33 35 36 36 36 34 33 31 30 33 34 38 40 41 46 54
36 36 35 32 23 21 25 25 30 32 33 35 35 33 30 28 25 21 20 21 23 29 33 33 31 32 33 33 33 34 35 37 36 34 32 30 29 30 34 33 37 45 41
41 36 36 35 33 25 19 23 25 29 30 29 30 33 31 28 25 23 19 17 19 22 28 35 34 33 30 32 33 32 32 32 31 31 31 27 26 31 28 30 36 40 39
56 43 36 37 35 35 30 23 20 23 26 28 26 27 30 30 26 22 20 17 17 19 21 23 27 31 31 31 32 31 32 31 30 30 28 26 25 22 26 27 36 40 40
64 60 52 41 36 33 34 30 28 20 21 23 23 21 24 25 25 23 21 18 18 18 18 20 21 22 25 26 27 28 29 30 30 28 26 24 19 23 26 32 35 39 43
69 73 61 51 46 33 32 33 31 28 23 22 22 20 18 20 21 21 22 21 20 19 18 18 17 19 20 22 23 24 25 25 26 26 25 22 23 26 31 35 39 40 45
66 70 69 64 54 48 34 30 30 31 28 25 23 21 20 18 18 17 18 20 20 20 19 19 18 18 18 18 20 20 19 21 24 25 23 22 27 30 34 37 39 42 55
60 65 65 67 66 62 42 29 28 29 28 27 25 25 22 20 19 19 18 19 19 18 20 20 20 20 19 19 19 19 18 15 16 17 19 22 29 34 35 39 47 53 56
60 61 65 66 68 64 51 39 31 31 28 28 28 25 23 24 24 20 19 19 18 17 18 19 21 22 22 21 20 19 18 14 15 17 20 28 33 37 48 52 55 60 57
66 66 65 68 65 65 55 53 44 40 38 30 27 26 24 23 25 23 20 20 19 17 18 19 18 20 22 22 21 19 18 18 18 22 28 33 36 45 53 55 58 56 56
56 60 63 67 65 66 58 55 53 49 45 40 34 27 24 23 22 22 23 22 20 19 17 18 20 20 22 24 25 20 20 20 23 28 31 32 36 47 54 57 56 55 61
61 68 67 70 70 70 65 63 60 55 52 48 44 38 29 24 22 20 19 18 19 22 20 20 21 22 24 25 26 24 24 23 27 30 30 31 39 50 55 57 57 61 60
60 64 70 81 71 71 68 68 62 58 56 55 51 46 44 41 30 22 21 21 22 23 24 25 25 25 27 28 29 27 26 28 30 31 32 35 45 52 57 57 60 61 58
59 57 61 75 88 77 71 69 63 59 58 57 55 57 56 48 40 33 28 30 29 28 32 35 31 28 26 28 28 30 30 32 31 31 33 39 52 56 58 64 63 59 55
48 57 53 55 68 69 70 66 62 64 60 59 60 57 58 59 53 47 37 33 37 41 42 39 39 35 31 28 29 32 33 33 33 35 36 47 62 62 61 61 61 60 60
48 49 44 39 42 58 61 55 57 59 62 62 62 62 63 64 64 58 43 43 40 42 41 38 36 33 29 33 37 41 43 41 39 37 42 67 72 64 66 65 67 65 61
44 44 44 37 38 48 54 54 53 54 55 55 58 61 64 71 70 70 54 48 44 41 36 31 31 32 32 38 41 44 45 47 51 59 71 86 89 77 69 73 74 70 64
39 35 34 34 38 43 49 56 56 54 56 57 59 61 60 69 70 73 64 51 38 38 39 36 37 37 41 44 44 48 48 47 49 50 54 70 93 88 80 84 81 74 69
35 29 30 34 41 44 49 59 63 59 58 57 63 62 64 62 73 76 67 64 46 33 31 32 36 42 46 53 56 63 67 71 68 59 55 61 85 89 86 83 79 78 68
35 31 31 37 43 49 50 55 66 67 66 63 65 67 67 64 74 75 73 78 69 61 51 48 52 58 61 64 66 65 67 71 74 73 69 73 77 78 83 91 85 73 64
39 35 39 45 46 46 45 50 63 67 66 68 70 74 75 70 73 79 79 80 78 74 72 70 73 81 82 76 71 72 72 72 69 68 71 74 81 91 90 86 75 62 61
52 47 45 46 50 50 50 49 55 61 65 66 78 82 81 82 79 82 88 87 84 83 87 89 86 84 81 79 77 74 71 71 73 73 75 81 86 89 83 70 63 58 57
61 56 57 58 63 62 60 61 62 63 67 67 66 75 84 89 83 82 83 86 88 87 90 84 81 82 78 74 71 73 75 75 79 79 76 76 75 71 71 70 60 53 50
77 78 68 62 67 67 71 74 74 73 73 69 74 77 81 83 78 81 82 90 81 90 86 84 81 81 79 77 76 79 79 78 77 79 74 73 74 71 69 64 54 52 54
77 74 83 80 79 80 87 81 78 90 89 87 98 89 94 91 96 89 92 91 95 95 89 92 95 89 83 77 80 84 80 78 83 82 76 79 77 70 63 58 56 57 58

GFSGL_prec_cthk_063.txt.gz
RH
33 34 33 29 27 28 33 36 39 40 43 43 42 44 47 45 45 45 40 39 37 31 30 31 32 36 36 36 38 37 35 33 34 36 34 34 36 37 38 39 40 45 51
38 35 33 30 26 23 27 30 36 38 41 47 43 39 41 41 41 39 38 36 36 36 34 30 31 31 31 33 36 37 37 35 33 32 31 31 33 34 34 35 37 40 44
43 40 37 33 29 25 21 25 31 35 37 40 38 37 36 37 38 36 35 31 32 34 36 36 34 32 32 33 35 36 37 38 36 34 32 31 30 30 30 33 29 34 36
51 44 42 38 33 29 25 20 24 28 32 35 39 37 36 37 36 33 31 30 26 27 29 33 35 34 34 35 36 35 34 34 35 34 31 29 27 27 30 27 24 30 35
61 50 44 43 42 37 33 29 21 22 26 30 33 37 36 34 34 34 30 28 28 25 25 26 30 36 37 34 34 34 34 34 32 32 30 29 26 24 24 26 28 32 35
60 59 51 44 46 44 38 35 33 27 21 24 27 29 30 33 30 28 29 27 25 23 24 24 24 25 28 32 33 31 33 34 32 31 30 28 26 24 22 25 29 31 37
63 66 65 52 45 45 44 42 38 34 32 27 21 23 25 26 27 25 26 27 25 23 21 22 24 24 23 25 27 27 26 27 29 31 30 27 26 23 24 25 29 32 38
64 65 67 63 55 46 45 43 41 39 36 34 31 26 22 20 21 22 21 24 26 23 23 23 22 23 23 23 23 24 25 25 23 23 23 24 25 22 22 28 32 34 45
65 67 66 67 66 59 51 41 39 39 40 36 33 33 30 25 20 19 19 19 20 19 18 22 23 22 22 24 24 22 20 18 19 19 19 20 20 20 23 30 34 44 49
68 65 64 69 69 65 61 57 44 38 40 40 35 31 31 29 26 23 22 20 20 19 17 17 20 22 21 24 25 25 22 17 18 19 19 19 19 22 27 35 44 51 53
69 65 66 66 70 71 69 68 61 48 42 40 41 36 30 27 27 26 26 26 22 20 18 16 14 16 21 21 23 26 22 21 20 20 22 19 21 24 31 39 46 54 54
57 64 65 67 68 70 71 74 68 59 48 42 41 43 35 30 26 25 25 28 29 27 22 19 17 16 17 20 23 22 23 25 25 21 21 19 23 27 34 42 48 53 52
48 56 66 67 69 68 70 71 64 58 48 46 43 40 39 36 31 27 25 26 29 30 28 25 22 20 21 21 22 22 23 25 25 23 20 21 27 31 35 42 50 55 52
45 47 60 61 66 68 71 73 69 58 47 45 42 40 41 42 37 34 31 29 27 26 23 22 21 22 23 24 24 24 24 25 26 27 24 26 30 32 33 42 52 55 55
47 45 44 56 62 66 71 75 71 63 52 47 45 51 52 47 46 52 54 44 35 29 27 28 26 25 24 24 24 25 26 29 29 30 30 30 31 32 36 45 55 53 55
45 43 39 44 58 61 63 72 69 64 60 55 56 55 55 55 58 63 65 58 57 52 44 36 30 32 32 30 30 29 28 32 31 33 35 34 33 35 39 52 59 56 53
54 45 40 47 54 65 64 61 66 64 64 62 60 61 63 59 58 63 70 75 69 66 50 38 38 39 35 35 35 39 37 34 34 34 36 35 33 34 42 54 54 57 58
51 50 45 47 45 41 46 51 54 60 63 65 64 63 62 67 67 67 73 80 82 67 59 44 38 39 38 40 41 41 39 40 40 38 34 35 36 43 51 53 58 62 70
50 56 47 45 43 44 44 53 56 65 64 58 59 57 59 62 66 69 74 77 82 74 65 54 48 46 43 42 38 38 39 38 38 46 46 46 48 57 57 52 56 60 67
49 54 53 43 43 41 46 52 56 59 59 59 59 55 57 62 64 63 67 67 75 74 71 58 55 50 46 47 46 47 51 51 55 60 62 66 64 62 62 62 65 68 71
43 43 45 44 43 40 37 44 45 44 52 60 61 62 60 64 67 69 71 68 68 73 68 68 66 62 49 44 45 51 59 66 69 75 78 80 72 71 73 77 77 81 83
39 43 43 46 50 44 41 44 40 37 44 48 57 63 65 66 65 67 72 71 67 72 68 66 69 76 68 64 65 66 72 76 78 79 82 79 75 77 78 77 80 84 89
32 36 44 49 49 50 43 37 32 31 36 40 43 50 60 66 68 69 70 73 73 75 74 71 76 77 84 85 83 85 91 84 82 84 80 78 80 78 78 77 82 90 86
39 36 38 52 56 53 40 36 36 33 38 42 44 48 52 58 63 69 68 73 79 83 83 82 80 82 84 94 93 84 86 89 87 83 82 83 80 79 84 80 77 75 72
47 44 45 47 51 49 48 46 42 41 46 45 48 50 50 51 60 69 77 76 79 81 86 87 87 86 88 89 89 95 92 88 86 84 84 85 86 87 86 82 79 74 72
56 54 53 53 58 55 55 55 48 48 50 53 57 57 58 61 62 59 70 75 81 83 85 89 91 90 95 92 87 89 88 93 94 90 87 85 85 88 86 83 80 77 71

GFSGL_prec_cthk_066.txt.gz
RH
44 43 43 41 41 35 34 37 39 40 41 43 43 50 51 52 50 48 44 40 38 36 35 37 41 40 40 42 42 41 41 39 38 37 38 36 35 36 36 34 36 37 40
46 48 46 42 39 35 31 32 35 35 35 38 39 41 48 48 48 48 46 44 39 40 37 33 32 34 34 38 39 38 38 37 36 35 34 32 32 33 32 32 36 31 31
50 48 51 48 43 38 31 25 29 31 34 33 36 38 37 39 40 41 43 42 41 36 39 37 36 34 35 34 36 36 37 37 36 34 33 32 31 30 29 30 31 27 28
52 51 51 49 49 45 38 30 25 26 29 32 33 34 33 33 34 36 38 37 35 34 31 34 36 37 37 36 36 36 37 38 39 37 34 33 31 30 28 27 26 26 24
51 50 48 47 47 47 44 38 33 27 24 26 30 32 31 30 29 30 32 33 32 31 31 30 30 30 33 36 37 38 38 36 34 33 33 32 30 30 28 27 26 26 24
57 48 48 51 49 44 43 40 38 35 31 23 24 26 28 31 31 29 27 27 28 31 29 29 30 30 30 31 33 34 35 34 32 33 31 30 30 29 28 29 26 24 26
63 60 55 52 49 49 46 42 39 36 37 35 28 21 22 24 27 30 29 26 24 22 24 25 26 27 29 29 28 29 30 28 28 30 29 30 28 27 29 29 25 22 26
65 64 64 64 64 58 54 48 42 40 38 37 37 35 28 22 21 23 25 25 23 20 18 19 21 24 26 28 28 27 26 25 27 26 24 24 24 26 29 27 24 21 27
71 71 75 72 72 67 61 53 51 48 44 40 38 38 37 33 30 26 22 21 21 19 18 16 16 19 20 22 25 25 24 21 21 22 22 21 21 21 23 23 22 24 31
80 79 77 76 76 74 66 59 54 52 50 48 42 39 38 36 35 33 33 28 21 18 16 15 14 14 16 19 21 22 23 19 21 22 20 19 21 21 21 21 22 25 36
68 77 78 72 73 75 71 70 64 55 50 48 47 43 37 35 32 30 32 34 29 23 19 16 15 14 13 14 18 21 19 21 23 24 23 22 21 21 21 22 25 29 36
63 61 72 75 73 74 79 78 72 69 62 51 46 43 40 34 33 31 29 28 30 29 24 22 20 18 16 16 15 15 19 24 25 25 24 22 20 19 20 22 26 30 35
56 57 56 64 69 72 75 79 78 76 69 62 58 51 45 36 34 33 32 30 26 27 26 25 25 24 23 20 18 18 18 20 23 24 22 20 18 21 23 26 30 31 34
51 56 53 60 62 68 71 75 75 71 66 65 63 58 46 35 37 35 34 34 33 30 25 24 25 26 26 23 22 21 22 22 23 23 21 20 21 24 25 28 28 29 31
48 51 54 55 58 64 66 74 77 72 69 68 67 57 47 41 40 43 42 42 38 37 40 33 27 24 23 21 19 18 19 22 24 24 23 21 24 28 29 30 30 30 32
55 49 58 57 54 56 57 61 68 72 74 73 74 67 51 42 46 50 47 51 52 55 53 45 40 34 25 21 20 19 20 22 23 24 25 27 29 31 34 33 33 34 34
49 51 57 62 54 48 53 51 54 58 69 72 72 69 52 46 51 54 55 59 62 64 58 55 51 47 41 31 28 28 29 30 33 34 35 33 34 34 35 38 36 37 40
50 53 55 60 62 53 48 48 45 41 45 60 71 67 60 53 54 58 62 61 61 65 64 66 67 59 51 45 37 35 35 37 39 40 43 41 37 34 33 35 38 35 46
51 51 54 63 60 53 44 45 42 40 50 58 66 64 64 61 58 62 66 64 65 65 69 68 73 76 62 52 51 46 43 40 41 43 44 43 42 42 44 40 36 46 62
46 51 53 69 56 52 48 48 46 48 49 51 60 63 67 66 58 53 57 64 71 71 68 63 69 75 75 61 59 57 56 52 48 47 47 48 46 53 58 56 60 67 73
46 44 48 65 58 52 49 52 50 51 51 50 51 61 61 68 65 59 55 59 62 63 64 62 64 68 73 71 70 64 61 57 56 48 50 55 62 70 73 78 81 78 77
41 37 40 42 47 51 52 49 51 50 45 44 43 53 58 66 62 65 63 60 59 60 61 65 72 72 71 69 68 66 60 57 62 65 63 65 72 80 87 83 83 85 84
43 41 40 39 43 43 37 46 48 50 42 48 44 42 48 53 55 57 60 63 64 62 63 65 71 74 75 71 66 66 67 64 69 71 78 78 83 80 84 85 85 86 86
51 47 42 39 37 35 34 43 46 54 49 45 48 47 48 40 39 48 58 63 65 68 69 69 70 71 79 76 72 73 73 76 74 75 76 77 87 85 89 90 90 92 91
58 48 48 50 46 39 37 40 51 50 45 45 50 48 48 35 43 51 54 55 57 60 64 64 68 74 81 81 82 83 84 86 86 82 84 86 81 90 97 95 93 93 92
77 67 54 54 47 44 40 44 45 46 47 51 51 50 49 38 45 49 53 53 57 55 58 57 62 68 78 86 89 90 91 91 91 92 90 92 90 91 97 95 96 96 94

GFSGL_prec_cthk_069.txt.gz
RH
51 51 49 49 46 44 39 40 42 46 49 49 51 51 49 47 45 44 40 37 37 36 36 36 37 37 38 42 42 41 39 38 39 39 35 34 34 33 33 32 31 31 31
53 55 52 51 51 46 42 37 39 42 43 41 42 45 46 48 47 45 49 41 38 34 33 32 32 34 34 38 39 38 36 35 34 35 35 34 30 29 29 29 28 28 27
55 55 56 52 50 49 45 41 37 38 40 38 37 39 40 45 48 44 45 47 40 37 34 32 30 30 30 33 36 35 37 35 33 32 32 33 29 29 27 28 26 25 25
55 53 55 54 50 49 48 46 42 35 36 35 35 34 36 37 39 40 39 38 37 36 33 32 31 30 32 33 35 35 35 36 36 33 35 36 35 32 29 29 29 28 23
52 49 45 44 48 52 50 47 46 41 35 31 33 35 35 35 34 33 33 34 34 33 32 30 27 27 27 29 32 33 36 36 38 37 37 36 35 34 34 32 30 29 24
60 54 54 49 46 46 47 48 47 44 40 37 31 29 33 34 30 30 29 30 30 29 30 30 29 29 29 27 27 27 30 33 34 36 34 32 33 32 32 30 29 29 28
75 71 57 52 49 48 46 46 45 43 42 39 36 33 27 27 31 31 30 28 27 25 24 25 27 27 25 25 26 28 28 27 27 26 26 27 27 27 27 25 28 29 28
81 76 70 65 56 51 51 45 42 43 41 38 37 35 33 28 23 24 28 31 30 26 23 21 19 19 21 23 25 26 24 25 25 26 24 23 23 24 24 25 25 24 22
86 84 81 79 71 65 57 51 46 46 44 41 40 38 35 33 32 29 24 23 24 24 22 20 18 17 16 17 21 22 22 22 23 23 22 21 22 22 24 23 24 24 22
84 87 88 79 77 74 70 65 54 50 48 48 46 42 40 36 36 35 36 35 29 22 19 17 16 16 15 15 16 18 19 16 19 22 21 21 22 22 21 21 22 24 23
66 81 83 79 81 79 78 74 71 66 57 51 50 46 43 39 37 35 36 36 33 30 29 24 17 14 13 14 14 14 13 17 19 20 20 21 21 22 22 22 22 22 25
58 62 65 66 83 85 80 80 77 75 71 63 56 51 44 40 38 35 33 32 30 31 30 30 25 20 17 16 15 14 14 14 15 18 23 23 22 22 23 22 22 22 21
54 49 53 63 70 76 76 78 76 78 75 70 69 65 56 51 46 40 35 31 30 31 27 27 28 25 23 22 21 20 19 18 17 17 17 17 19 20 20 20 21 22 22
50 51 48 50 59 65 66 72 76 77 76 76 74 72 72 64 57 53 47 38 34 32 29 26 25 25 24 23 24 25 27 25 21 19 20 19 19 19 19 19 21 24 25
48 56 45 50 54 59 59 62 66 73 79 76 77 81 77 72 70 67 61 53 45 38 39 36 31 27 24 24 23 25 25 23 21 19 18 18 19 19 21 21 22 23 29
48 50 56 48 52 56 58 57 61 62 67 75 78 78 78 74 76 74 65 58 54 53 53 43 33 28 26 25 23 22 22 21 19 18 18 19 20 22 24 25 27 30 33
43 47 66 55 48 56 58 58 59 63 58 62 66 73 75 75 78 81 74 63 65 63 52 44 40 41 41 41 42 40 34 29 26 22 22 24 25 26 29 32 37 36 36
45 48 47 65 56 56 50 55 59 58 61 56 59 58 67 77 79 78 84 73 61 59 53 50 48 49 50 53 55 54 50 47 40 35 32 33 34 35 36 39 42 45 42
47 46 47 51 60 59 53 51 52 61 57 56 55 54 56 63 77 79 80 76 59 58 55 53 55 58 60 60 63 67 66 61 55 53 48 45 42 40 40 44 46 45 45
46 48 46 47 48 52 52 56 53 58 55 55 51 56 52 46 64 69 71 72 65 56 57 52 52 58 62 63 63 64 66 68 60 59 58 56 54 54 50 47 46 45 46
46 45 47 47 49 47 47 53 52 66 57 55 51 50 51 47 48 64 74 72 72 62 58 57 57 60 67 69 63 60 64 65 66 64 63 61 58 58 58 62 64 62 63
51 47 46 46 43 46 44 46 53 62 57 60 56 46 47 48 49 51 67 73 74 77 70 64 61 62 64 67 65 63 61 66 70 69 68 64 58 57 56 61 66 63 67
57 51 46 45 43 39 40 43 49 61 51 56 59 49 47 50 55 52 57 68 72 72 75 71 72 74 62 65 67 64 62 62 68 70 69 67 64 63 63 69 72 71 75
68 63 56 49 47 44 45 46 49 55 49 56 58 51 52 54 57 60 54 55 61 63 62 69 75 80 65 68 68 66 66 73 73 71 71 71 71 72 75 78 81 84 83
79 77 68 54 47 46 47 47 50 53 53 56 56 48 51 55 59 64 56 53 58 55 53 57 63 68 67 69 70 68 71 76 73 78 78 77 78 80 83 86 87 88 91
88 87 77 66 54 47 42 41 45 45 47 50 53 50 51 54 56 61 61 57 55 52 51 50 48 51 57 59 59 56 56 58 66 75 73 76 82 88 90 89 96 98 99

GFSGL_prec_cthk_072.txt.gz
RH
51 52 51 50 47 45 45 45 47 49 51 53 58 61 57 54 47 40 42 42 41 40 40 38 35 35 38 43 42 43 45 45 43 44 42 40 31 31 29 28 30 31 34
52 53 54 54 53 51 46 44 42 46 49 51 58 56 56 51 48 46 46 42 39 36 37 37 36 35 31 34 38 39 41 41 38 38 36 37 34 30 27 24 28 29 27
57 55 56 53 54 52 51 46 43 41 42 46 48 53 53 53 44 46 49 48 44 40 37 35 33 32 33 34 36 40 39 39 39 36 35 35 35 30 29 28 27 29 31
60 57 51 58 52 54 54 51 46 44 39 39 41 42 49 52 49 49 48 47 48 44 39 36 33 32 32 32 31 33 35 36 38 38 36 34 33 34 32 32 33 32 33
54 52 56 50 52 53 54 54 51 48 45 41 36 35 39 44 49 44 42 43 43 41 39 35 33 31 29 29 35 36 38 39 38 38 38 36 35 37 35 33 33 32 32
60 56 54 57 54 51 51 50 49 52 48 45 41 34 30 33 38 39 38 39 36 35 36 32 30 29 27 25 24 24 26 31 33 35 36 36 35 33 35 32 33 31 31
76 62 58 56 56 54 51 50 46 48 47 44 41 38 34 31 30 32 32 32 36 33 33 32 30 31 27 26 25 25 24 24 25 25 27 28 27 28 28 28 27 30 30
91 83 73 66 65 63 62 56 54 50 46 43 40 35 33 30 31 30 29 30 32 32 32 31 28 25 28 24 24 25 23 23 22 23 23 23 23 24 24 27 26 24 24
83 89 88 76 79 72 62 58 56 58 55 47 44 40 34 29 28 28 30 29 28 28 31 30 28 26 23 20 19 22 22 22 26 22 21 20 21 20 20 22 23 26 24
68 81 86 82 76 69 68 69 70 65 62 57 48 43 40 32 29 28 29 30 30 27 23 22 23 24 24 22 20 18 19 18 21 24 25 20 18 19 19 19 20 24 26
54 62 75 76 69 75 78 84 81 77 71 67 57 49 44 38 34 31 31 32 31 30 29 28 25 22 19 18 18 18 17 18 19 20 22 23 25 26 25 23 18 19 24
44 55 59 66 63 71 83 87 80 81 81 79 71 63 53 46 43 38 37 35 33 35 33 32 32 32 27 25 23 17 15 15 18 21 21 21 24 27 30 33 29 21 20
40 39 52 57 66 65 68 69 70 86 82 81 82 79 74 64 53 46 43 40 38 37 34 34 36 36 34 32 31 26 23 21 20 20 22 22 22 23 25 26 27 27 23
38 42 39 47 56 56 61 62 69 76 91 85 82 80 82 75 68 63 58 52 50 46 38 34 33 33 32 32 31 29 27 24 25 25 27 29 29 27 31 33 30 29 29
35 38 41 43 45 58 63 55 58 65 78 85 84 83 80 78 73 76 77 68 60 54 54 45 39 36 32 28 28 28 28 26 23 25 25 28 30 28 27 29 31 30 34
31 35 37 41 43 46 45 49 48 51 58 69 68 70 79 78 79 80 78 76 77 73 67 57 55 50 41 34 31 32 29 26 26 26 25 26 28 27 26 27 28 31 33
31 29 36 38 41 48 46 44 46 46 52 62 67 61 61 69 75 78 80 81 82 81 71 67 59 55 54 50 44 38 33 34 35 33 33 30 28 27 27 27 28 34 36
35 31 30 34 36 41 46 47 45 51 52 61 63 68 64 60 62 67 78 84 83 82 76 71 61 59 58 57 55 57 57 59 60 57 54 48 45 44 40 39 40 42 42
40 36 34 32 37 38 43 43 50 50 49 54 60 66 67 62 58 59 64 80 83 84 81 74 64 61 60 59 60 63 64 66 68 70 71 70 64 57 54 54 54 54 55
46 44 40 36 34 37 39 41 46 54 58 55 53 57 65 69 67 60 60 69 83 81 83 78 76 68 63 61 63 66 69 70 72 72 73 72 72 71 65 66 65 62 61
52 51 48 43 38 36 40 40 41 42 54 62 56 52 53 58 63 67 62 58 73 82 78 78 75 69 65 63 61 62 63 69 72 71 74 70 70 71 67 63 63 65 63
59 58 58 53 47 41 39 41 41 39 45 44 58 60 50 55 66 67 63 66 56 64 72 72 69 69 72 68 64 65 66 69 72 74 72 72 72 71 72 70 67 68 66
64 62 60 61 57 48 44 42 43 42 41 44 45 48 51 61 68 64 63 67 60 51 57 62 68 74 77 75 67 66 66 67 70 75 71 72 74 73 72 73 71 69 69
69 66 65 66 64 56 49 44 45 45 42 43 49 46 49 60 64 72 69 62 58 56 52 62 66 70 70 67 67 71 77 79 76 77 76 77 76 74 76 73 76 75 75
74 72 71 73 75 72 60 53 48 47 46 43 45 45 48 52 55 64 68 65 59 60 54 50 59 59 58 56 51 51 58 68 78 78 77 83 81 81 80 74 71 72 72
81 79 80 81 77 75 73 67 58 51 48 45 42 46 46 43 45 49 62 61 62 62 64 56 61 60 55 56 59 54 50 54 60 62 59 58 63 66 60 58 65 68 69

GFSGL_prec_cthk_075.txt.gz
RH
53 57 54 53 53 52 49 50 49 49 52 52 54 63 65 54 53 50 46 49 42 38 42 48 39 36 44 51 51 51 52 50 48 46 47 42 35 31 31 24 27 29 32
57 54 55 54 55 55 50 49 50 46 46 49 52 59 63 59 56 49 46 49 42 40 40 39 37 37 32 35 45 46 45 47 46 42 38 33 34 33 29 25 27 28 31
54 56 55 55 56 58 54 50 49 48 44 45 51 57 59 59 55 52 49 46 49 44 40 38 37 37 35 36 38 39 42 39 36 37 37 35 34 32 33 30 29 32 33
66 63 56 53 56 59 60 57 52 48 44 43 44 48 54 56 54 52 55 53 49 49 44 41 38 36 34 31 30 32 31 35 38 37 35 35 36 38 36 34 36 38 33
65 61 67 58 52 58 57 59 54 52 47 44 42 42 44 49 53 51 49 52 51 48 48 42 38 37 36 33 35 34 34 35 35 35 37 40 40 40 40 37 30 32 31
77 68 60 56 55 54 62 60 60 55 51 48 45 43 42 39 44 47 47 47 43 41 41 38 36 36 32 27 25 26 32 31 28 31 34 37 36 37 35 33 32 28 25
88 83 70 59 58 61 59 56 53 56 54 52 48 47 43 37 34 33 36 36 40 42 39 34 35 38 33 27 23 23 23 22 22 21 22 23 25 26 25 22 24 26 25
84 84 83 70 64 60 62 60 55 53 51 52 48 47 42 41 36 33 32 30 31 31 34 37 34 29 31 33 28 27 23 21 20 19 19 19 20 21 22 24 25 23 26
69 74 85 85 76 66 61 59 61 59 57 53 49 49 44 41 38 36 35 34 32 28 26 26 29 31 27 25 30 29 23 21 24 23 22 22 20 21 22 24 25 25 25
60 62 66 77 86 84 76 72 69 68 63 60 54 54 54 48 40 37 36 37 36 30 30 25 24 24 26 28 26 25 24 21 23 21 24 23 22 21 21 22 20 23 23
49 52 59 63 71 80 85 84 71 70 74 66 57 52 53 54 50 43 39 38 35 34 32 30 26 22 21 22 23 25 23 24 25 24 22 19 18 23 26 26 24 25 24
39 42 43 47 51 63 72 78 74 70 72 76 62 62 61 62 58 49 44 41 36 39 35 35 34 34 32 30 30 27 25 25 25 23 23 22 21 22 27 27 28 27 25
36 37 38 39 40 43 49 58 62 69 71 67 71 62 72 71 72 60 49 44 42 44 39 38 40 40 39 35 34 33 33 34 32 29 26 22 21 21 22 24 25 29 29
31 32 33 36 39 41 46 46 54 58 64 68 72 73 77 78 79 75 73 61 55 52 46 43 41 40 40 39 38 36 34 34 33 31 29 25 25 24 26 28 30 33 35
26 24 26 29 32 35 38 44 43 58 63 68 64 70 71 86 85 83 83 85 75 68 62 53 48 45 42 37 38 36 32 30 28 28 29 28 27 26 26 27 27 29 32
28 26 24 25 27 31 36 38 42 42 54 54 54 54 63 65 76 80 85 90 88 84 85 85 63 57 56 52 48 43 38 35 33 33 30 27 28 29 29 29 29 29 30
30 29 29 26 25 27 29 34 38 40 45 46 43 45 49 52 54 59 73 86 89 85 82 83 81 75 67 67 62 59 56 52 44 38 35 34 34 36 40 40 38 36 33
31 32 32 30 28 28 29 30 31 38 39 44 44 39 46 48 50 51 63 67 78 82 79 82 81 75 74 74 66 62 62 63 59 52 52 52 53 55 59 60 56 54 53
32 35 36 36 35 32 32 32 29 31 37 36 36 38 37 43 47 52 58 61 63 69 72 75 74 80 81 78 71 64 59 59 62 68 68 68 68 70 72 74 74 70 67
34 37 39 40 38 37 36 33 31 29 31 36 37 36 42 44 48 50 58 64 62 60 64 70 75 78 80 82 76 68 67 67 64 66 69 72 73 74 81 86 88 86 88
37 41 43 44 44 42 40 37 35 33 30 30 34 39 43 48 48 49 58 67 69 66 63 64 75 82 82 83 82 78 73 73 67 66 69 72 77 77 74 74 75 77 81
44 47 49 48 48 47 45 43 41 38 36 33 31 35 40 45 51 51 52 60 58 69 71 64 62 77 84 89 89 82 78 75 71 66 64 68 71 82 78 74 75 73 73
54 57 57 56 53 52 50 48 46 44 41 39 36 31 37 40 49 52 51 56 63 60 65 64 59 63 75 76 90 86 78 67 65 70 72 63 65 69 76 75 81 82 78
64 67 65 64 62 59 57 55 53 51 49 47 43 39 32 38 40 50 52 63 66 64 61 65 59 68 67 67 79 80 67 67 65 68 74 72 75 71 73 72 69 74 78
73 74 72 69 68 64 61 59 55 55 53 51 48 47 41 37 45 45 47 52 62 67 60 62 63 66 63 54 55 70 65 59 58 57 56 69 75 70 74 73 79 84 81
79 80 77 75 73 70 64 61 58 58 58 60 58 52 50 43 43 49 54 49 54 67 60 56 67 68 62 59 55 62 64 52 54 53 53 55 48 50 55 63 65 64 61

GFSGL_prec_cthk_078.txt.gz
RH
46 46 50 46 41 41 40 40 48 53 49 69 64 51 69 53 44 44 49 54 45 35 35 36 34 55 51 47 41 44 51 53 52 51 47 44 36 30 27 26 24 22 24
47 49 47 47 45 44 42 41 44 46 44 49 47 55 66 58 53 50 45 46 48 37 32 40 42 33 33 40 47 47 45 46 45 41 37 37 35 30 32 28 27 25 28
61 50 51 52 48 44 43 44 43 47 41 38 41 43 49 58 58 61 51 40 46 44 35 35 33 32 30 28 31 39 41 40 39 39 35 36 34 31 30 32 29 29 31
73 74 59 49 48 45 48 48 49 46 48 42 39 40 45 52 51 53 55 51 42 47 45 37 36 34 32 33 30 31 32 34 37 38 36 34 34 35 36 37 38 35 29
80 78 64 83 74 57 47 55 55 52 47 45 43 43 42 45 50 45 44 47 52 51 50 49 39 36 34 32 32 27 28 28 29 28 30 33 39 41 42 42 40 34 29
91 80 66 84 97 65 55 51 53 56 55 54 45 43 43 41 39 42 41 43 44 40 44 45 41 36 40 37 31 25 28 33 37 37 34 33 33 37 36 35 32 27 22
90 96 88 84 65 64 70 59 51 57 58 57 54 45 44 43 41 37 39 38 37 39 42 44 41 36 34 36 32 29 25 22 24 24 23 21 20 21 23 22 21 21 20
76 81 82 82 85 82 68 58 56 56 53 56 53 53 46 44 41 40 38 36 33 31 32 37 37 35 29 34 38 34 29 27 25 23 22 20 19 20 22 21 20 20 21
60 66 69 72 81 82 82 72 63 58 55 56 58 55 49 49 45 45 42 40 35 31 29 27 27 30 29 28 29 30 29 25 23 22 20 21 23 25 25 26 22 24 20
51 54 56 60 64 76 78 78 75 65 60 61 61 57 57 54 51 51 52 47 42 35 32 28 27 27 26 28 31 28 26 23 26 25 25 23 22 21 21 22 22 21 22
42 41 43 47 56 56 64 73 80 77 66 66 62 63 67 61 58 53 52 53 48 43 40 35 31 28 29 31 30 26 22 22 22 23 23 22 22 22 20 19 19 24 25
31 35 37 40 42 46 51 58 61 65 75 80 76 66 67 67 60 57 58 55 53 52 45 40 38 39 35 33 34 33 31 32 31 29 28 27 26 25 25 25 23 22 25
31 30 27 27 30 34 38 41 41 49 58 63 77 71 64 63 65 64 63 64 60 63 53 43 41 40 40 40 38 36 37 38 38 36 33 30 30 29 28 24 21 22 22
26 25 26 27 25 25 26 31 35 37 37 43 56 68 66 68 70 75 74 71 71 71 63 50 47 45 44 42 40 37 38 39 38 35 33 32 32 33 31 29 28 25 23
22 23 23 23 21 22 24 26 28 33 35 38 40 51 62 67 74 71 75 75 79 82 78 66 61 54 49 44 40 39 38 39 38 35 34 33 32 30 28 28 28 28 27
19 19 22 23 23 23 21 19 21 24 31 35 36 37 41 49 60 65 69 71 72 80 85 81 83 73 67 58 48 45 46 48 47 42 35 32 32 31 29 29 32 31 30
21 20 20 19 21 23 24 24 21 18 22 28 32 34 38 40 52 50 58 59 58 61 71 77 82 78 72 77 81 70 62 56 55 52 48 47 42 38 34 31 32 35 43
23 22 21 21 21 21 23 25 26 25 22 22 22 31 35 40 44 49 50 53 51 51 49 55 70 75 76 80 84 85 84 79 75 66 60 57 57 55 53 48 50 55 58
24 24 23 23 23 23 24 24 25 26 26 23 22 24 25 31 36 41 43 43 44 50 45 46 57 71 75 76 80 84 82 80 85 76 71 67 71 65 63 63 66 65 67
24 25 24 24 25 27 29 27 30 30 28 28 27 25 24 26 29 34 39 42 42 41 44 42 45 57 64 69 75 82 82 79 79 80 74 68 66 70 72 72 73 76 77
26 26 26 27 29 31 34 36 34 34 34 33 31 29 28 28 31 32 34 39 44 45 43 46 45 59 64 66 72 77 81 80 82 87 81 73 73 70 71 69 71 76 83
28 29 29 32 35 36 38 39 40 38 38 37 36 31 29 29 28 29 32 35 35 39 43 43 47 48 65 65 70 74 79 87 86 87 90 86 83 80 78 73 69 70 76
30 30 33 36 40 43 44 45 46 45 42 40 40 39 34 30 31 31 29 33 38 34 38 43 42 44 45 64 68 69 69 78 91 95 97 93 93 90 86 72 67 65 64
33 35 38 41 48 50 52 51 51 51 50 46 45 44 42 38 34 29 28 29 32 39 42 46 47 46 44 47 59 66 67 70 76 82 83 89 81 85 83 86 82 77 76
41 46 49 52 59 64 61 59 57 57 56 52 50 49 47 44 42 38 35 36 37 36 39 37 45 51 49 51 55 57 66 71 72 74 74 78 72 68 68 65 62 70 73
52 60 65 70 75 79 75 69 67 64 61 58 55 53 51 48 45 43 43 41 43 42 40 39 42 48 51 52 57 57 58 59 61 58 67 75 77 71 64 57 54 52 50

GFSGL_prec_cthk_081.txt.gz
RH
39 46 56 57 53 47 47 57 62 61 70 69 69 64 53 54 44 45 48 47 38 34 27 29 38 40 39 44 49 49 49 51 53 56 51 49 45 41 34 29 29 28 28
58 57 54 50 56 51 48 47 46 48 55 60 62 60 57 67 50 51 46 48 49 42 33 30 31 36 47 39 39 43 47 48 50 50 48 46 42 35 29 30 31 32 29
82 67 68 57 56 61 55 47 46 46 46 45 46 47 52 60 58 56 57 44 46 48 34 31 34 36 35 33 35 36 40 43 46 46 44 42 34 32 33 35 34 36 36
87 78 69 67 65 67 64 51 47 45 45 44 40 40 40 48 56 59 60 58 45 43 42 35 34 31 29 29 27 27 30 31 34 34 31 33 35 35 38 38 38 40 39
90 89 77 78 72 75 76 71 60 53 51 51 45 41 42 44 49 51 48 49 52 50 44 47 41 36 33 32 34 30 28 26 27 29 28 30 29 36 38 40 40 39 37
83 85 89 90 85 72 90 88 65 67 62 61 54 47 43 43 43 44 43 42 46 48 49 50 47 45 37 36 36 35 30 27 26 33 36 35 33 34 35 34 30 28 22
86 86 85 90 88 81 74 77 70 67 66 63 59 58 57 46 44 43 43 46 43 41 40 41 42 40 38 33 31 34 35 33 30 25 22 21 21 20 20 20 20 20 19
66 73 84 93 90 88 87 74 77 77 70 63 63 60 60 54 49 47 46 45 43 39 37 37 37 37 39 35 30 30 31 33 31 29 27 24 22 21 23 25 24 21 18
57 62 69 70 79 80 79 80 82 76 67 62 60 64 65 62 60 52 56 53 46 43 41 38 34 33 34 35 32 28 27 24 23 21 20 19 19 20 21 24 23 24 20
45 48 54 57 60 68 66 73 76 82 79 69 64 60 62 64 63 61 59 58 59 55 47 42 39 36 33 31 32 30 28 23 24 23 22 21 21 22 24 24 23 22 21
41 40 39 43 49 51 53 56 62 73 77 80 76 67 62 62 66 66 64 63 61 60 60 50 44 41 38 37 36 33 29 29 29 28 26 25 23 23 22 22 22 21 18
27 27 27 29 34 35 38 44 49 54 59 72 77 76 64 61 64 69 70 67 63 61 61 61 52 48 43 40 40 39 38 38 37 35 34 32 30 28 27 28 29 28 25
26 25 25 25 24 24 26 29 31 38 44 49 55 58 70 77 70 69 71 69 66 58 58 62 62 60 55 44 41 41 41 39 38 39 36 33 34 34 34 34 33 32 30
20 21 21 21 21 21 22 25 26 27 30 33 35 38 42 57 73 82 74 72 71 70 65 62 62 63 62 55 47 40 38 38 39 38 35 33 34 34 32 33 33 32 32
16 16 16 16 17 17 17 17 19 23 26 27 27 30 33 34 44 59 69 73 72 73 73 69 66 63 63 64 55 46 43 40 40 37 37 35 36 36 33 33 32 30 29
13 13 13 13 14 14 14 14 15 15 16 18 22 26 26 30 33 36 43 50 55 58 63 66 65 64 71 75 71 67 60 50 43 42 39 40 43 43 39 34 34 31 28
13 12 11 11 11 12 12 14 13 11 13 15 15 16 20 23 26 31 32 35 37 48 54 55 57 60 62 71 76 75 74 64 61 56 50 48 48 46 44 41 39 38 32
13 16 15 14 12 12 12 13 14 14 12 11 13 16 17 18 22 27 32 31 33 37 48 53 50 52 52 55 61 68 71 72 66 66 69 73 71 70 65 54 48 50 52
15 16 17 16 16 15 15 15 15 16 16 15 13 13 16 20 21 23 26 28 30 32 35 48 48 47 44 44 48 55 59 63 67 74 76 83 91 90 80 76 65 62 60
17 17 18 19 20 19 19 20 20 20 19 19 18 18 17 20 25 24 25 24 25 28 30 37 42 43 40 42 46 49 49 58 66 72 77 82 84 85 92 90 79 74 72
18 17 17 18 18 19 22 22 22 23 23 23 21 21 22 23 22 25 28 27 28 27 33 37 45 48 46 46 51 50 47 49 64 70 77 81 84 87 89 88 91 88 86
21 20 19 19 19 20 20 21 23 25 27 27 26 26 26 27 26 25 26 29 30 31 30 29 35 41 45 49 47 44 43 45 52 68 77 85 88 88 92 92 93 93 92
25 24 22 21 21 21 22 24 27 30 31 32 32 33 34 34 34 32 29 29 30 30 32 30 28 33 39 44 45 45 43 39 44 59 68 74 78 86 90 98 97 98 91
29 29 29 29 25 25 27 30 34 37 38 39 39 38 38 38 38 37 35 36 34 32 34 37 36 31 29 36 44 48 47 46 44 48 59 73 75 76 76 78 83 85 84
38 37 33 32 30 29 32 37 43 47 49 49 48 47 45 43 41 41 41 39 39 40 34 36 39 35 29 30 36 42 48 50 50 49 49 53 63 68 79 83 83 86 80
39 40 41 39 37 39 46 52 57 61 61 60 59 57 55 53 50 47 46 43 40 40 41 39 36 34 30 30 32 36 41 48 51 52 48 46 47 58 68 80 87 85 82

GFSGL_prec_cthk_084.txt.gz
RH
38 40 42 46 48 49 54 56 57 60 65 75 83 63 57 48 43 45 45 41 30 28 29 25 31 42 49 54 55 55 55 52 53 52 51 49 45 42 41 35 29 35 34
61 50 50 56 63 57 51 48 54 61 64 71 69 72 66 58 49 45 48 47 40 36 32 28 28 36 43 46 47 51 52 50 52 53 51 50 46 43 37 34 29 33 34
84 62 58 60 66 69 60 53 53 54 51 59 61 60 62 73 68 54 52 45 46 44 39 34 29 34 39 42 41 42 46 48 49 48 48 50 48 44 38 34 33 35 35
90 92 70 72 69 71 71 64 60 57 51 49 52 46 48 55 61 64 59 54 48 45 46 38 31 30 32 34 37 39 40 34 36 41 41 44 43 40 34 32 35 37 38
93 91 93 86 83 79 76 70 66 60 58 52 51 49 45 45 49 60 59 60 56 51 47 44 41 35 31 28 29 30 30 29 28 27 27 28 26 24 26 34 35 34 31
79 84 90 88 82 87 87 83 79 78 74 67 64 55 50 48 47 49 55 53 53 53 53 50 51 48 43 39 33 33 35 35 29 26 24 26 30 31 31 28 23 21 19
81 82 87 91 92 90 91 84 85 85 81 76 70 71 61 54 52 50 50 48 48 50 52 55 52 48 47 41 38 35 31 33 35 33 30 27 26 24 24 22 21 21 20
71 74 73 74 74 87 91 89 83 84 78 76 73 66 68 67 58 57 52 53 49 47 46 45 45 44 44 45 43 40 33 31 32 35 34 30 29 26 25 23 23 22 19
60 63 63 64 69 66 81 87 88 84 83 80 78 74 68 64 66 71 64 60 53 50 45 46 45 42 41 42 42 37 31 26 26 26 25 24 23 22 23 22 21 22 20
50 50 56 61 63 61 64 79 81 83 85 83 80 79 70 63 61 67 71 68 66 62 56 50 47 45 42 42 44 41 37 30 28 27 26 26 26 25 26 26 26 25 24
41 41 42 44 51 55 56 61 73 74 76 76 80 78 74 69 68 68 72 71 66 63 70 65 59 57 52 47 45 42 36 36 36 36 33 30 28 28 28 26 27 28 27
32 30 29 30 32 34 37 44 48 53 54 59 67 67 74 78 75 69 67 67 69 67 62 65 69 66 62 56 50 44 40 40 39 37 38 33 31 29 28 31 35 36 35
29 28 27 26 25 24 24 26 28 30 34 38 48 61 66 71 80 81 73 65 65 69 71 67 65 63 63 62 59 51 50 44 40 38 35 34 32 32 35 35 33 35 35
22 21 21 22 22 23 23 23 23 23 23 23 25 30 38 48 54 66 76 79 73 63 70 71 66 62 58 58 59 61 59 55 47 44 39 36 36 35 35 35 35 35 35
19 18 18 17 17 17 18 18 18 20 20 21 22 22 23 24 29 32 42 53 58 70 72 68 64 63 62 62 57 56 61 61 60 53 49 44 41 39 35 34 35 37 39
14 14 15 14 15 15 14 13 14 14 14 15 16 18 19 21 23 24 25 29 35 39 44 58 60 58 59 60 62 60 59 63 65 67 66 58 51 49 44 40 42 45 43
9 9 9 9 10 10 11 11 10 11 11 11 11 12 13 15 15 16 19 21 23 24 26 28 32 42 44 54 58 59 58 63 71 70 75 77 71 65 58 53 52 52 51
10 10 9 10 10 10 10 9 9 9 7 7 9 9 10 11 12 14 15 16 18 21 21 23 24 27 34 43 53 57 57 56 58 62 66 70 76 72 69 72 76 76 73
13 12 12 11 11 10 10 10 9 9 8 8 8 8 9 9 9 11 14 16 19 19 20 21 20 22 26 32 40 49 51 55 54 55 59 66 74 79 76 84 87 89 93
15 15 14 14 13 13 12 12 11 10 10 9 9 10 10 10 10 10 11 13 15 17 20 22 21 20 23 29 34 40 48 51 56 56 55 55 59 73 79 81 87 88 90
21 20 19 19 18 17 16 14 13 12 12 11 11 12 13 14 13 13 13 14 16 16 17 21 25 25 25 24 28 36 47 50 53 55 59 58 58 67 75 80 84 84 89
26 26 25 24 23 20 17 16 16 16 15 14 13 14 15 16 17 20 20 20 21 21 20 19 22 27 28 28 28 32 37 45 49 48 52 53 51 51 56 71 80 85 90
31 29 29 27 24 23 21 19 19 20 21 21 21 22 23 22 21 22 23 24 25 24 24 24 23 23 30 32 31 32 35 40 45 50 48 49 48 47 49 57 68 78 84
35 31 29 28 27 26 23 21 23 24 25 26 29 30 32 32 32 31 30 29 28 28 29 28 26 25 26 33 35 33 34 35 38 46 51 47 51 46 47 48 56 64 67
38 36 34 33 33 31 28 26 27 32 34 36 38 41 41 43 41 40 38 36 35 33 32 33 32 32 31 32 38 40 39 37 38 39 45 54 58 51 47 47 47 52 60
47 40 38 38 38 35 32 30 33 38 42 44 50 54 56 56 54 52 49 46 43 40 39 38 37 35 35 35 37 43 44 43 41 41 39 39 48 53 53 48 47 46 51

GFSGL_prec_cthk_087.txt.gz
RH
54 34 34 38 47 57 55 61 68 78 76 83 78 76 66 58 48 47 45 41 32 26 29 34 37 44 49 57 56 59 58 57 54 54 54 55 53 49 47 44 39 37 36
66 49 36 40 46 50 56 58 60 60 62 72 81 79 68 61 48 48 49 47 47 34 30 29 28 31 37 46 52 52 55 55 55 53 52 54 51 48 46 44 41 39 36
88 83 50 45 46 53 54 55 53 56 60 65 74 74 74 66 63 55 52 51 49 44 43 38 35 32 29 37 45 48 51 48 48 48 49 48 47 47 46 45 42 39 37
89 96 83 61 57 64 68 63 56 52 59 60 63 68 67 67 70 71 62 62 55 51 48 46 43 38 31 33 41 45 45 44 43 43 43 37 37 40 38 36 33 33 32
91 90 95 83 69 68 73 77 71 59 57 55 53 59 58 55 58 61 62 61 61 57 55 50 44 40 39 35 36 39 39 36 39 40 34 30 28 28 28 28 28 27 24
76 80 85 84 80 85 81 81 82 77 70 62 58 54 57 57 55 55 57 57 65 61 52 53 52 46 44 43 39 34 34 35 35 34 31 30 28 28 27 27 25 22 20
77 74 74 84 87 91 91 90 88 85 81 76 71 66 62 61 59 59 55 56 54 55 55 55 53 54 54 50 48 44 40 37 40 40 35 32 29 28 31 28 27 24 20
72 70 70 68 78 73 71 85 86 89 86 82 84 81 77 76 73 65 64 60 56 51 52 52 54 52 49 49 49 47 44 42 38 35 32 33 32 30 30 30 29 25 21
71 71 71 68 68 70 66 71 77 87 88 86 86 80 78 80 79 79 74 69 66 57 55 52 49 49 49 47 49 48 41 36 36 32 29 28 27 27 27 27 26 26 22
55 59 65 68 69 69 64 55 66 77 82 88 86 85 83 82 83 78 78 73 70 66 65 62 57 55 51 50 49 47 48 42 40 38 35 32 31 30 30 31 30 29 28
45 45 48 50 56 60 61 57 50 55 69 75 79 84 86 83 81 76 72 72 71 72 70 69 64 60 54 53 52 50 46 46 43 41 37 36 34 32 30 31 33 35 33
36 34 35 36 37 37 42 50 54 55 54 60 70 72 73 72 75 77 77 76 70 66 66 68 64 68 73 66 59 58 57 55 50 46 42 37 34 31 31 33 34 36 39
35 33 30 28 26 25 26 29 33 35 36 41 45 54 62 69 70 73 75 78 78 72 69 67 65 63 61 62 68 68 65 61 60 56 49 43 40 38 37 37 37 35 36
30 28 26 26 24 23 23 23 23 23 23 24 26 29 37 40 47 57 66 67 73 71 73 68 61 63 66 68 66 65 67 64 61 58 57 54 51 46 41 41 41 40 40
25 23 22 21 20 20 20 20 20 20 21 20 20 21 20 22 23 24 28 36 47 55 61 61 65 62 60 63 68 68 64 61 58 56 55 60 63 61 54 48 46 44 45
20 21 20 19 19 18 18 18 18 18 18 18 18 18 18 18 17 17 18 19 20 23 27 33 37 41 50 58 61 59 59 61 61 59 58 55 55 60 64 66 63 56 51
19 19 18 18 17 16 15 14 13 14 13 13 13 13 13 13 13 14 14 13 12 13 15 16 18 22 27 30 33 42 51 48 51 58 58 60 60 63 62 61 68 68 64
14 14 14 14 12 11 11 10 10 10 10 10 11 11 11 11 10 11 11 11 12 12 12 12 12 13 15 18 20 22 27 33 41 48 54 58 59 62 68 69 73 76 75
15 14 13 12 12 12 11 11 11 10 10 9 8 9 9 9 9 10 11 11 11 12 13 13 13 13 15 16 17 18 19 20 25 34 40 53 59 59 57 59 62 72 76
18 18 17 16 15 14 13 12 12 11 11 10 10 9 8 8 7 6 7 9 11 12 13 14 14 14 15 17 18 18 20 22 23 26 31 38 53 61 62 62 61 62 68
22 20 19 18 17 16 16 14 13 13 13 12 12 12 11 10 10 9 10 10 10 11 13 16 18 18 16 16 17 19 21 23 25 25 26 31 37 51 64 66 66 62 61
25 24 22 21 20 20 19 17 15 14 14 14 14 13 13 13 12 12 13 12 12 13 14 15 15 18 20 20 20 19 20 24 28 30 32 34 38 42 50 55 61 60 56
41 36 34 32 30 29 25 22 19 17 17 17 17 16 16 16 16 16 16 16 17 16 16 17 17 17 20 22 22 23 23 26 31 32 31 32 42 44 46 53 52 51 49
51 49 46 42 39 35 32 29 25 22 22 22 22 22 22 22 22 22 23 23 23 22 23 22 21 20 20 21 24 25 25 26 31 34 36 35 36 43 53 48 49 50 50
63 57 49 43 39 38 35 34 31 27 24 23 26 27 26 27 28 30 32 32 31 32 31 32 30 29 28 27 29 29 28 28 31 33 40 40 42 40 44 53 50 47 52
62 60 53 47 43 40 37 35 33 31 28 25 25 30 32 33 35 38 41 42 44 44 44 43 40 38 36 34 33 32 33 32 32 36 41 43 43 42 44 44 44 48 57

GFSGL_prec_cthk_090.txt.gz
RH
97 65 40 44 42 49 55 64 71 75 76 84 82 66 65 66 58 52 47 43 38 30 28 32 35 42 49 51 54 61 59 57 57 55 53 53 53 52 52 49 45 44 42
96 79 56 39 38 44 55 57 61 70 79 79 83 78 80 67 57 49 48 50 47 38 29 24 26 30 36 44 48 49 60 57 56 56 54 54 52 51 48 46 44 44 42
98 87 84 50 40 40 49 57 55 58 61 71 77 81 79 71 67 54 49 56 53 52 43 37 30 28 27 29 33 42 48 51 51 53 51 48 46 48 44 38 38 38 37
96 94 96 89 51 43 46 54 57 60 56 59 66 73 77 79 72 67 62 59 61 55 52 44 41 41 38 37 33 31 36 43 46 46 45 44 44 43 37 31 33 34 31
94 92 97 96 80 53 52 57 63 60 61 56 62 70 69 75 69 68 71 63 57 57 57 54 51 47 47 42 36 32 35 38 42 43 40 37 38 34 34 33 31 31 27
86 79 79 84 89 78 64 65 71 74 71 67 64 59 59 64 63 60 65 63 62 60 61 56 55 53 49 45 44 43 42 42 40 36 35 33 32 33 34 35 33 31 28
70 70 67 71 81 80 85 78 77 78 81 78 71 66 64 62 61 61 59 58 57 58 57 59 52 52 55 54 53 50 46 42 39 37 35 38 36 34 36 35 32 30 27
74 69 66 66 67 69 77 82 85 78 82 86 85 77 70 69 69 64 62 62 60 57 57 55 53 53 52 54 55 52 49 47 45 41 39 36 34 32 32 32 30 27 24
79 76 72 73 71 65 60 64 68 77 86 89 88 86 83 80 75 74 72 72 68 65 62 59 56 54 53 53 51 46 43 44 46 43 38 35 33 30 30 29 27 27 24
71 72 70 66 68 66 64 62 58 57 68 83 88 89 89 90 83 80 79 79 78 73 69 68 65 57 55 55 50 49 50 45 45 46 44 39 37 34 34 34 34 33 32
60 55 54 57 60 59 59 62 60 58 56 59 76 83 88 89 87 84 83 82 82 80 78 71 69 68 66 64 59 56 53 50 51 50 48 46 42 38 36 36 37 38 36
42 40 39 40 43 46 49 49 51 51 49 51 57 61 70 78 85 81 81 84 83 82 80 78 75 76 75 73 71 68 68 64 60 58 56 52 51 48 44 41 39 38 38
35 33 32 31 30 31 34 36 36 41 46 45 45 44 51 55 69 76 69 72 76 79 81 82 81 78 74 75 77 74 71 75 75 68 61 57 55 51 49 48 45 42 37
36 33 30 28 27 27 27 27 26 25 26 30 34 40 38 37 36 36 48 59 58 60 64 67 72 77 78 74 73 74 72 68 66 62 58 58 58 54 50 51 51 52 52
33 32 32 31 30 29 28 26 24 22 22 21 21 20 21 22 22 23 24 29 35 39 42 44 47 52 56 61 62 62 64 64 64 63 60 57 56 54 53 53 55 57 60
35 32 31 29 30 29 28 24 22 21 19 18 18 18 18 17 16 16 16 17 18 18 20 20 22 27 32 39 41 42 44 46 47 51 55 53 55 58 56 54 52 58 58
25 26 26 24 23 22 21 21 21 20 19 18 16 16 15 14 13 13 12 12 12 12 13 12 13 13 15 16 21 28 30 32 32 34 38 41 47 49 49 50 53 56 56
19 19 19 19 19 19 18 17 16 16 16 16 15 14 13 13 13 12 11 10 10 10 10 11 12 11 11 11 11 11 12 16 19 22 25 25 27 32 39 44 50 59 59
16 16 15 14 14 14 15 15 15 14 13 13 14 14 13 13 12 12 12 12 11 11 10 10 10 10 11 13 12 12 12 12 13 13 15 20 22 23 27 36 41 49 58
17 16 16 16 16 16 14 13 12 11 11 12 12 12 12 12 12 12 13 13 13 13 13 13 13 13 13 12 11 13 14 15 14 14 14 16 18 20 21 23 30 37 42
21 20 19 19 19 18 17 17 15 14 13 14 14 15 14 14 13 13 12 12 12 12 12 12 13 14 14 14 14 15 19 19 19 17 16 17 20 23 23 22 27 32 39
34 30 27 26 24 23 22 21 20 18 17 17 17 17 16 15 15 14 14 14 14 14 14 14 15 16 16 17 17 15 15 18 20 21 22 22 23 25 27 25 28 33 38
40 38 35 32 31 30 29 28 26 24 23 21 20 19 19 18 18 17 17 17 16 16 17 17 17 17 18 20 20 19 19 18 19 21 24 26 26 30 30 30 27 26 33
59 51 43 39 39 38 38 38 38 35 32 29 25 23 21 20 20 20 21 20 20 20 20 19 20 20 21 22 22 22 22 21 22 23 26 25 27 29 30 30 31 30 31
75 72 67 61 57 53 49 45 42 36 32 31 29 25 23 22 23 24 24 22 21 21 22 23 24 25 26 27 28 28 27 27 26 25 26 29 30 30 33 32 31 31 32
79 75 72 69 63 58 52 46 41 37 35 33 32 29 25 23 24 26 26 26 26 27 29 31 33 35 36 36 37 38 37 36 35 34 34 33 32 32 34 36 36 40 40

GFSGL_prec_cthk_093.txt.gz
RH
89 85 68 63 52 49 49 59 73 76 78 78 77 64 59 65 60 55 50 41 36 33 33 32 34 36 42 47 49 49 51 53 55 53 52 51 50 48 47 45 43 41 41
86 92 87 73 54 53 47 52 61 71 75 78 80 84 71 73 70 58 53 46 44 41 34 27 26 29 32 36 40 45 47 47 51 51 50 49 48 47 45 42 40 41 35
95 95 95 92 70 50 43 47 56 60 67 76 77 81 82 78 70 63 57 49 52 54 49 42 30 26 23 25 28 32 37 42 44 47 49 46 45 44 39 37 37 33 31
93 93 96 93 90 72 40 40 52 56 57 60 63 70 78 82 81 75 69 60 53 60 56 54 45 37 35 34 33 32 30 30 34 38 42 42 43 41 35 35 35 34 32
88 89 92 94 92 90 52 45 43 54 58 60 61 59 65 70 76 77 73 70 66 61 63 62 57 51 44 40 38 37 35 38 36 33 37 42 41 37 39 39 38 37 31
92 90 85 83 91 97 89 60 47 50 59 63 62 59 59 65 68 70 70 65 67 67 60 59 60 60 55 51 48 45 40 38 41 44 46 43 35 38 38 37 36 36 33
89 90 83 71 70 88 93 88 71 59 61 67 72 65 65 61 60 63 63 62 61 66 63 60 62 66 56 53 55 53 48 46 44 44 42 40 39 38 41 39 38 32 29
82 78 69 71 61 62 70 69 80 82 78 72 74 78 77 70 68 64 61 62 61 61 59 60 62 62 61 59 57 55 57 60 57 52 47 43 39 37 37 36 30 27 25
83 81 74 68 67 67 62 60 69 76 82 80 79 78 79 82 77 72 67 66 64 64 63 66 65 63 59 56 53 53 51 48 48 46 45 43 41 40 40 38 36 36 34
83 81 79 76 72 70 66 61 58 63 61 61 59 72 82 85 86 86 81 75 73 73 74 69 70 69 68 65 61 56 55 55 51 52 52 48 48 46 45 44 41 40 38
71 70 69 66 68 65 66 65 61 59 59 57 53 54 66 79 86 87 88 86 81 78 78 77 77 78 75 70 71 73 69 64 59 56 54 54 55 55 57 55 50 47 46
59 58 56 55 50 52 56 59 58 56 56 54 52 50 52 60 69 73 81 84 86 85 82 82 83 82 80 79 78 76 75 74 74 71 64 61 59 56 54 55 54 53 52
48 47 46 40 38 38 40 42 45 44 42 47 46 45 43 44 49 51 65 73 77 76 76 73 80 81 83 84 84 83 78 74 72 71 72 68 69 68 59 54 53 53 49
42 40 37 35 32 30 30 31 32 31 33 34 33 34 37 38 38 38 37 37 41 56 57 60 62 65 65 65 68 73 75 76 74 72 72 70 65 60 61 63 62 63 60
34 36 35 34 35 32 31 29 28 26 26 25 24 23 22 22 22 23 25 24 24 25 24 31 36 41 44 47 47 48 53 54 57 58 58 58 58 57 55 56 58 58 59
39 35 34 34 33 32 30 29 29 28 27 27 25 23 22 20 19 18 17 16 16 16 16 17 18 20 23 26 29 33 33 34 40 44 51 48 46 47 47 45 46 49 50
46 43 41 39 37 36 33 31 30 29 28 26 24 23 20 18 17 15 14 13 12 12 12 12 12 13 14 14 17 17 16 20 19 25 27 31 33 36 35 40 41 45 46
35 33 33 32 33 32 30 29 29 27 25 23 21 20 19 18 17 16 15 14 13 12 11 10 10 10 10 11 11 14 13 13 14 16 17 18 21 25 25 26 30 33 35
32 31 29 26 23 22 21 20 20 19 19 19 19 19 18 16 15 15 15 14 14 14 14 14 13 13 12 11 12 11 11 12 14 16 18 18 17 17 16 18 19 22 21
20 24 28 27 25 21 19 17 16 15 15 14 15 15 16 16 16 16 16 16 16 16 16 16 16 15 15 14 13 13 15 17 17 18 19 20 20 20 20 19 18 18 21
20 21 22 24 24 23 20 18 16 15 14 14 13 13 13 13 14 14 15 15 16 16 16 16 15 16 17 17 16 17 18 20 21 20 21 21 21 20 19 20 20 20 19
34 28 26 26 25 24 23 22 21 19 18 17 17 16 16 16 17 17 18 18 17 16 16 16 17 18 19 18 19 19 17 17 19 22 23 24 24 23 23 22 21 21 22
50 42 38 36 35 33 32 31 30 28 27 24 22 21 20 20 20 21 21 21 20 20 21 21 21 21 22 22 23 24 23 23 23 22 23 24 22 20 20 21 23 24 25
71 61 51 44 40 39 39 39 37 34 31 31 31 30 28 26 25 23 23 22 22 22 22 23 23 23 23 23 23 22 23 24 26 27 27 26 25 25 25 23 22 22 26
79 73 72 69 64 57 53 49 47 43 39 37 36 35 34 31 29 27 26 25 25 25 26 26 25 24 24 24 25 25 26 28 29 31 32 33 30 29 28 28 28 27 27
89 88 82 78 74 70 68 66 62 57 54 50 47 44 39 35 31 28 26 25 26 27 26 27 27 27 28 29 30 31 32 34 35 38 41 40 38 37 37 37 35 33 31

GFSGL_prec_cthk_096.txt.gz
RH
80 71 66 73 67 56 53 55 61 68 71 81 78 72 65 65 64 58 54 47 39 39 38 36 34 35 37 46 52 52 52 54 55 56 58 57 50 49 47 44 43 41 45
87 81 83 83 77 64 56 53 60 72 79 79 77 82 77 74 70 70 63 59 55 42 41 41 33 33 33 33 39 44 47 49 50 49 50 50 52 49 46 44 43 40 39
94 90 88 91 93 85 65 54 51 59 75 80 77 81 86 83 78 81 69 61 54 50 52 49 41 34 29 28 31 36 39 40 42 44 44 47 50 52 48 44 40 37 42
92 96 93 93 94 89 85 61 48 49 60 68 70 74 79 83 81 78 72 67 63 54 54 58 57 52 46 39 36 32 32 33 35 35 37 38 40 44 44 43 40 41 41
85 86 86 88 88 90 88 84 56 44 53 65 60 62 63 64 73 77 77 78 74 68 62 61 64 61 56 52 48 49 46 41 42 41 44 42 43 46 42 40 41 41 39
78 76 83 88 81 87 91 89 76 46 43 54 63 63 62 63 58 63 68 72 76 66 69 65 60 58 60 61 57 52 48 48 48 47 47 47 44 46 48 43 43 43 42
75 76 79 84 80 72 81 93 88 71 57 55 56 62 60 58 56 56 59 64 70 68 71 72 72 70 66 67 66 59 57 56 52 52 52 52 50 51 51 47 45 42 39
78 79 82 77 76 74 71 78 87 80 76 74 71 65 64 66 68 64 64 62 65 66 65 64 67 66 63 63 64 65 62 63 62 61 61 56 50 48 48 47 44 41 39
76 78 77 78 70 67 70 72 66 66 72 79 79 72 69 69 72 77 78 74 71 70 62 62 63 63 63 65 66 64 64 63 64 62 56 51 47 46 46 44 45 48 46
81 79 79 81 77 72 69 68 66 63 65 76 80 76 68 66 72 77 83 85 81 80 74 69 68 71 67 66 68 69 68 67 60 57 57 58 56 54 53 53 54 57 54
82 80 80 80 77 74 73 71 68 65 59 62 63 63 61 58 62 72 80 88 88 90 88 82 78 74 74 74 74 73 74 74 71 68 67 65 65 65 63 65 61 61 62
74 74 73 70 68 65 64 65 64 64 60 58 58 57 56 52 52 59 69 73 79 83 88 88 84 83 81 81 80 78 81 80 80 76 74 72 70 69 69 65 62 61 57
59 58 60 55 52 53 53 49 48 54 56 53 52 50 53 46 46 43 48 51 57 61 74 78 80 80 78 76 71 75 79 80 79 77 79 77 77 74 71 70 68 65 63
55 55 54 53 52 49 46 43 44 44 45 46 44 40 38 35 33 37 33 34 34 36 41 44 54 58 57 54 52 56 62 66 67 65 64 67 69 69 69 67 65 65 62
47 49 48 50 48 43 41 40 39 32 30 33 32 32 30 31 24 22 22 21 22 22 23 22 25 25 29 31 38 50 49 49 50 53 53 54 56 57 56 57 56 54 52
50 49 51 47 45 43 38 33 32 31 32 30 28 27 25 23 23 22 20 19 18 17 16 16 17 16 19 20 20 20 21 26 31 35 36 36 38 41 43 43 45 47 47
58 56 53 50 48 45 38 36 35 30 30 30 28 27 26 25 24 23 23 21 18 16 20 19 16 15 18 14 14 17 17 18 16 17 17 17 19 21 21 23 24 28 30
50 48 50 48 45 44 44 43 41 39 41 39 34 31 28 26 23 22 23 22 26 25 22 20 20 19 18 17 17 17 17 15 17 17 16 16 16 15 15 16 18 20 22
40 37 34 32 37 39 40 40 39 39 38 38 36 30 25 23 22 21 19 20 21 21 21 22 21 20 20 20 19 19 17 18 18 19 18 18 18 18 18 19 20 21 20
23 20 18 18 21 25 28 32 33 31 30 30 29 27 25 24 22 21 21 20 21 22 22 22 22 22 21 20 20 20 21 20 19 19 18 19 20 20 20 20 20 21 19
25 20 21 22 21 22 21 23 25 30 33 29 26 20 16 17 19 19 20 21 22 22 22 23 23 24 24 24 24 23 22 22 21 21 21 21 21 21 21 21 22 22 21
43 32 30 27 27 25 25 23 24 25 25 27 28 23 17 18 19 19 20 20 21 21 22 22 23 23 23 23 23 23 23 23 23 24 24 25 25 25 24 24 24 24 23
53 52 44 41 41 36 30 32 32 31 31 29 26 25 24 23 23 24 24 24 25 24 24 25 25 25 26 26 25 25 26 26 26 27 26 26 25 25 25 26 26 26 26
62 64 63 59 55 50 47 43 41 38 40 41 39 37 34 31 29 29 28 28 29 29 29 30 30 28 29 29 29 29 30 29 28 27 27 27 28 28 29 30 30 30 30
78 80 71 69 69 71 69 58 49 47 46 46 45 44 43 42 38 34 32 32 32 30 29 29 31 32 31 32 31 31 31 30 31 33 35 34 33 34 34 35 36 36 35
93 89 81 85 80 74 73 73 71 69 64 61 57 53 51 50 48 43 40 39 38 36 30 30 31 31 30 31 30 30 30 31 33 36 39 39 39 39 40 40 40 41 42

GFSGL_prec_cthk_099.txt.gz
RH
87 68 70 62 62 62 54 49 57 62 65 66 75 71 64 61 60 59 53 58 50 40 39 44 39 35 38 43 52 54 51 54 56 58 58 57 51 46 42 40 42 41 44
89 89 84 77 72 75 72 55 54 57 62 65 81 79 80 73 68 67 68 67 61 55 44 40 38 39 37 34 38 43 45 46 47 42 39 37 40 45 46 47 44 42 41
92 91 86 81 81 86 86 74 62 57 60 75 81 81 86 83 85 78 74 70 65 60 53 50 51 43 35 31 33 38 40 42 43 45 41 38 38 38 42 46 40 42 43
86 84 88 91 94 89 91 92 82 73 58 66 76 79 77 81 82 89 82 77 71 68 60 55 55 57 54 47 39 33 33 32 35 39 41 42 44 41 41 49 48 41 42
84 88 84 88 84 93 94 94 91 81 69 58 65 69 70 72 78 87 89 85 82 80 75 71 63 61 60 57 55 54 52 53 50 50 48 46 47 50 52 46 45 48 44
84 81 79 76 89 86 88 91 91 86 78 70 64 64 68 66 65 64 64 72 75 76 79 75 70 65 62 58 59 59 58 53 50 51 51 52 51 52 53 53 51 47 44
79 80 78 77 81 81 73 76 93 94 88 78 67 54 61 66 71 67 63 61 62 69 74 79 75 81 81 75 67 65 65 62 59 58 56 52 51 52 51 48 48 51 48
78 78 77 74 75 77 81 78 73 85 88 83 74 55 51 55 63 65 62 60 60 62 66 73 76 72 73 73 71 73 72 71 68 67 63 61 60 62 59 55 51 47 44
79 76 78 77 80 75 71 71 74 85 79 73 70 72 65 63 59 58 62 70 75 74 69 75 79 72 66 67 67 66 68 72 74 72 71 63 60 58 57 56 54 56 51
79 82 80 77 75 78 75 73 69 69 70 67 60 72 74 72 74 70 69 72 71 75 83 78 75 74 71 68 67 68 68 70 69 67 66 66 64 62 63 66 65 68 69
76 80 83 82 80 77 79 76 73 71 72 70 64 64 75 75 74 68 66 66 68 76 83 84 81 84 81 79 76 73 73 73 75 74 72 74 76 76 75 73 68 68 68
73 75 75 73 77 77 76 76 74 74 71 71 68 63 61 60 61 61 58 57 60 72 75 79 82 80 86 87 83 80 77 78 77 78 81 78 81 82 81 75 75 72 68
56 62 60 69 65 61 65 65 61 60 67 66 65 61 59 55 53 49 51 47 47 52 55 59 53 56 64 74 73 75 76 74 76 76 74 75 75 76 75 71 71 70 68
54 53 56 59 61 59 61 64 59 55 54 55 58 57 54 49 44 37 34 32 36 34 33 35 33 36 37 39 43 49 56 52 52 51 50 57 62 60 61 62 62 61 61
55 54 53 56 55 57 55 57 57 53 47 45 46 44 45 44 37 30 27 26 22 20 20 20 24 24 24 25 24 24 26 30 30 30 29 35 40 43 47 52 54 53 53
55 54 56 58 56 55 54 45 46 45 41 40 37 33 33 30 29 27 26 24 23 23 24 23 24 22 21 21 20 19 19 18 18 16 17 16 17 17 20 24 25 29 31
59 57 57 54 57 54 51 56 59 48 39 38 36 32 29 27 26 25 24 24 24 25 28 31 28 26 25 24 22 20 18 18 15 15 17 16 16 16 17 17 17 20 19
61 60 57 55 56 54 55 55 52 54 51 48 43 39 33 30 28 27 29 31 33 33 31 28 27 26 25 24 23 22 21 20 19 18 18 18 18 18 17 17 18 21 22
49 48 40 35 39 44 44 44 44 46 47 47 43 38 36 35 33 33 33 39 36 35 30 27 25 23 23 23 23 23 23 21 21 21 20 19 19 19 19 19 19 19 19
37 31 23 24 24 24 28 29 30 31 31 32 34 38 35 35 39 37 33 32 31 30 28 27 25 24 22 22 21 21 21 21 21 21 21 21 21 21 20 20 19 19 19
36 33 25 24 23 22 22 22 23 23 23 22 23 22 18 23 30 32 30 25 24 25 26 26 26 24 22 22 23 23 23 22 22 22 22 22 22 22 22 23 23 22 22
44 39 40 35 35 30 28 26 25 22 22 22 22 19 15 13 23 27 30 29 28 27 26 26 25 24 24 24 24 24 24 24 25 25 25 25 25 26 26 26 26 26 26
50 45 45 41 41 37 34 30 29 29 28 26 25 24 25 25 26 28 30 31 32 30 28 26 25 24 24 25 26 26 26 26 26 25 23 23 23 25 28 28 29 29 29
59 50 49 50 49 47 46 46 42 39 41 42 38 34 33 33 31 32 33 34 32 30 29 28 28 28 29 30 30 30 29 27 26 27 28 31 31 32 32 32 33 34 35
66 62 62 56 59 59 57 58 58 60 53 48 47 49 47 45 43 40 40 40 39 36 34 33 33 33 33 33 34 34 31 30 31 32 35 35 35 37 38 38 37 37 39
72 70 73 71 69 66 76 73 69 69 69 69 68 66 62 56 53 48 43 41 42 42 40 40 41 40 39 37 36 32 33 33 33 35 36 36 36 36 38 40 41 43 44

GFSGL_prec_cthk_102.txt.gz
RH
79 83 80 54 52 46 43 42 51 61 71 80 78 79 59 53 45 50 49 53 62 50 39 43 44 54 30 35 38 43 55 56 54 53 52 55 54 50 52 53 45 40 39
79 75 81 75 76 66 62 67 54 53 54 57 67 72 78 71 69 61 57 54 58 55 46 36 35 32 34 33 29 36 40 46 46 43 46 45 45 42 39 38 41 44 38
79 76 81 89 84 85 76 74 84 68 56 52 64 77 84 81 80 74 74 71 67 64 55 54 48 49 46 40 31 29 32 35 35 36 35 35 36 40 43 46 46 51 38
77 79 79 83 82 79 84 82 90 86 77 66 59 79 90 81 82 84 83 76 76 70 65 58 54 52 51 53 52 49 40 39 42 43 47 50 48 53 48 49 50 49 36
76 78 79 78 77 83 83 85 92 90 87 73 77 70 80 78 74 77 80 88 87 78 77 82 74 72 66 63 59 58 58 57 56 53 51 50 46 45 45 46 43 42 41
72 78 86 81 79 78 80 82 86 90 89 86 79 75 73 68 77 74 71 72 83 85 76 71 74 73 72 67 62 61 60 60 58 54 52 51 47 48 50 46 44 43 43
79 81 78 82 76 75 79 80 75 79 90 88 84 81 71 68 70 72 70 70 66 61 62 67 72 76 77 75 75 77 73 70 66 67 66 62 57 56 56 54 54 52 49
78 80 77 76 74 72 70 75 71 69 87 93 87 79 78 66 65 64 67 66 66 63 60 59 58 62 71 75 74 72 71 71 72 73 71 71 70 66 63 59 55 51 49
81 79 77 76 72 71 74 71 70 72 84 88 82 75 73 71 63 59 57 59 65 68 71 72 70 69 69 75 74 68 65 65 68 68 72 73 72 71 68 63 61 61 64
74 78 77 75 76 75 76 73 71 70 68 73 79 72 63 65 72 72 66 62 63 61 56 60 66 75 77 74 72 72 69 66 66 67 69 68 68 69 72 72 71 74 73
74 73 76 77 78 79 79 75 74 76 73 70 71 68 62 62 72 74 74 70 72 67 65 67 70 72 73 77 78 76 76 76 76 71 73 72 73 77 81 77 78 79 77
71 75 75 77 78 78 80 79 78 78 79 76 75 73 65 63 62 67 69 64 60 55 52 58 69 73 75 73 73 75 79 82 77 77 79 79 78 79 80 80 79 80 77
61 63 71 71 68 70 70 69 73 74 79 80 77 73 66 64 61 58 56 56 53 50 46 43 43 47 47 45 38 43 49 54 57 59 61 62 62 62 56 55 59 59 62
48 48 52 54 52 53 59 66 66 67 67 66 67 61 62 63 62 53 48 43 37 35 34 35 31 28 30 30 27 27 27 25 24 27 29 33 35 35 33 34 35 38 43
53 52 51 49 52 56 58 61 64 64 62 61 67 59 53 50 51 46 43 38 32 28 26 25 26 26 25 25 24 24 23 23 20 19 18 17 17 19 18 17 15 15 18
58 57 57 56 54 54 53 51 52 57 46 58 49 50 48 43 41 39 35 32 30 27 27 28 27 25 24 25 22 22 23 21 20 18 16 16 16 15 14 15 16 16 15
56 56 54 51 53 55 57 57 55 51 49 40 43 44 46 43 37 34 32 30 28 29 30 35 33 30 30 29 28 27 24 22 22 19 18 17 17 17 15 15 16 16 16
57 59 60 60 57 58 58 55 54 55 54 50 49 45 42 44 46 44 41 40 39 37 38 38 36 33 32 32 31 29 25 24 20 19 19 19 19 18 18 18 17 17 16
46 49 50 48 54 54 51 48 46 40 39 47 50 43 37 37 37 36 41 43 47 46 43 40 35 33 33 33 32 31 28 27 24 23 23 21 21 20 19 19 18 19 18
42 41 39 36 35 32 29 29 30 25 25 27 30 29 26 25 29 31 31 32 35 38 36 35 34 35 33 31 31 30 30 29 27 26 24 23 22 20 21 20 19 19 19
48 46 42 36 31 29 24 22 20 20 20 21 22 23 21 17 22 22 23 21 22 24 24 25 27 28 29 29 26 25 24 25 26 25 25 24 23 22 22 23 23 23 23
51 49 44 41 38 37 36 33 31 28 26 26 24 22 21 17 18 22 22 21 22 18 19 19 21 22 23 24 25 26 28 27 27 25 23 24 24 24 25 25 25 25 25
58 57 53 52 47 46 43 43 40 36 32 29 29 26 24 20 22 24 25 24 25 24 24 24 24 24 24 25 28 30 32 30 28 27 26 26 25 25 27 28 28 29 30
65 67 64 56 51 51 50 51 49 45 43 42 39 35 32 30 31 30 29 29 31 31 30 29 29 29 30 31 31 31 30 29 28 28 28 29 30 31 32 33 34 34 34
75 82 82 72 66 55 60 58 57 55 51 49 53 50 47 43 42 42 40 40 41 40 38 36 34 33 35 35 35 35 32 33 32 33 33 33 34 36 36 36 36 36 37
63 93 87 84 83 75 68 60 62 64 64 63 62 56 56 56 58 59 57 54 52 48 44 43 41 45 44 43 41 39 36 35 35 34 34 35 35 36 37 38 40 42 43